     2              OBSERVATION DATA    G (GPS)             RINEX VERSION / TYPE
RGRINEXO V2.5.5 UX AUSLIG 27-JUL-03 22:01                   PGM / RUN BY / DATE
Australian Regional GPS Network (ARGN)                      COMMENT
MAWSON Antarctica AUS64                                     COMMENT
0.000000000000 HARDWARE CALIBRATION (S)                     COMMENT
0.000000000000 CLOCK OFFSET (S)                             COMMENT
BIT 2 OF LLI (+4) FLAGS DATA COLLECTED UNDER "AS" CONDITION COMMENT
maw1                                                        MARKER NAME
66004M001                                                   MARKER NUMBER
auslig auslig                                               OBSERVER / AGENCY
C119U AOA ICS-4000Z ACT 00.12.06 / 3.3.32.4                 REC # / TYPE / VERS
275 AOAD/M_T DOME                                           ANT # / TYPE
  1111286.0000  2168912.0000 -5874496.0000                  APPROX POSITION XYZ
        0.0035        0.0000        0.0000                  ANTENNA: DELTA H/E/N
     1     1                                                WAVELENGTH FACT L1/2
     5    C1    L1    L2    P2    P1                        # / TYPES OF OBSERV
    30                                                      INTERVAL
  2003     7    27    21     0    0.000000                  TIME OF FIRST OBS
                                                            END OF HEADER
 03  7 27 21  0  0.0000000  0 11 08 10 15 17 18 21 26 27 28 29 31
                 -15210381.456 4 -11852242.931 6  21620484.765
  21620484.617   -17590053.615 4 -13706533.988 6  21669716.838
  21669716.275    -4633229.090 2  -3610307.096 5  23473033.796
  23473033.139    -9489440.913 3  -7394369.379 6  22428286.357
  22428285.449    -3505544.236 1  -2731591.411 5  24021076.597
  24021076.978   -12740024.676 4  -9927290.670 6  22038281.162
  22038282.605   -18300673.013 5 -14260263.214 7  21393239.564
  21393239.956    -8106235.169 2  -6316543.689 5  23120628.386
  23120628.102    -5542199.469 1  -4318594.928 5  23738900.602
  23738901.915   -24239882.174 5 -18888217.526 7  20197273.032
  20197273.346     -524356.690 1   -408590.295 4  24827929.998    24827930.803
 03  7 27 21  0 30.0000000  0 11 08 10 15 17 18 21 26 27 28 29 31
                 -15163835.265 4 -11815973.177 6  21629342.188
  21629342.149   -17509159.999 4 -13643500.014 6  21685110.417
  21685109.730    -4702906.290 2  -3664600.901 5  23459774.134
  23459773.638    -9409917.040 3  -7332402.707 6  22443418.922
  22443418.455    -3612354.677 2  -2814820.218 5  24000750.339
  24000751.600   -12722329.990 4  -9913502.530 6  22041648.294
  22041649.692   -18368552.550 5 -14313156.369 7  21380322.572
  21380322.784    -8000618.040 2  -6234244.675 5  23140726.127
  23140726.844    -5639483.832 1  -4394400.884 5  23720387.774
  23720388.691   -24253687.341 5 -18898974.802 7  20194644.446
  20194646.360     -588116.895 1   -458273.599 5  24815797.105    24815799.299
 03  7 27 21  1  0.0000000  0 11 08 10 15 17 18 21 26 27 28 29 31
                 -15116768.247 4 -11779297.584 6  21638299.012
  21638298.697   -17427846.695 4 -13580138.982 6  21700583.840
  21700583.398    -4772140.884 2  -3718549.767 5  23446599.285
  23446598.763    -9329959.504 3  -7270098.143 6  22458634.476
  22458633.728    -3718977.906 2  -2897903.150 5  23980460.985
  23980462.203   -12704033.906 4  -9899245.835 6  22045129.859
  22045131.104   -18436067.082 5 -14365765.078 7  21367474.878
  21367475.255    -7894687.891 2  -6151701.740 5  23160884.852
  23160884.277    -5736443.431 1  -4469953.812 5  23701936.773
  23701937.594   -24266911.001 5 -18909278.919 7  20192129.405
  20192129.859     -651476.247 1   -507644.560 4  24803740.868    24803741.347
 03  7 27 21  1 30.0000000  0 11 08 10 15 17 18 21 26 27 28 29 31
                 -15069167.270 4 -11742205.954 6  21647357.085
  21647357.071   -17346100.844 4 -13516440.907 6  21716139.432
  21716139.088    -4840916.024 2  -3772140.707 5  23433511.720
  23433511.470    -9249556.166 3  -7207446.217 6  22473934.795
  22473933.813    -3825396.910 1  -2980826.992 5  23960209.815
  23960211.008   -12685122.040 4  -9884509.283 6  22048728.613
  22048730.014   -18503200.386 5 -14418076.723 7  21354699.865
  21354700.291    -7788432.666 1  -6068905.451 5  23181103.545
  23181103.875    -5833060.056 1  -4545239.472 5  23683550.950
  23683551.785   -24279538.103 5 -18919118.239 7  20189725.333
  20189727.039     -714417.486 1   -556689.749 5  24791764.777    24791764.254
 03  7 27 21  2  0.0000000  0 11 08 10 15 17 18 21 26 27 28 29 31
                 -15021059.524 4 -11704719.427 6  21656511.670
  21656511.683   -17263949.786 4 -13452427.065 6  21731772.183
  21731772.106    -4909254.715 2  -3825391.595 5  23420507.090
  23420507.175    -9168734.867 3  -7144468.584 6  22489314.300
  22489313.940    -3931634.822 1  -3063609.780 5  23939993.888
  23939995.009   -12665621.057 4  -9869313.704 6  22052439.455
  22052440.916   -18569976.495 5 -14470110.054 7  21341992.820
  21341993.076    -7681880.909 2  -5985878.096 5  23201380.075
  23201380.268    -5929356.335 1  -4620275.470 5  23665226.948
  23665227.596   -24291593.783 5 -18928512.266 7  20187432.469
  20187432.834     -776964.209 1   -605427.763 5  24779863.108    24779863.100
 03  7 27 21  2 30.0000000  0 11 08 10 15 17 18 21 26 27 28 29 31
                 -14972430.472 4 -11666826.644 6  21665765.612
  21665765.367   -17181379.238 4 -13388086.356 6  21747484.850
  21747484.535    -4977138.634 2  -3878288.102 5  23407589.263
  23407589.309    -9087481.946 3  -7081154.631 6  22504776.870
  22504775.684    -4037673.300 1  -3146237.136 5  23919815.116
  23919815.718   -12645515.347 4  -9853646.910 6  22056265.435
  22056267.046   -18636377.858 5 -14521851.405 7  21329357.029
  21329357.359    -7575019.124 2  -5902609.161 5  23221715.529
  23221715.238    -6025312.811 1  -4695046.722 5  23646966.717
  23646967.989   -24303061.475 5 -18937448.120 7  20185248.834
  20185250.741     -839097.646 1   -653843.389 5  24768038.462    24768039.927
 03  7 27 21  3  0.0000000  0 11 08 10 15 17 18 21 26 27 28 29 31
                 -14923295.301 4 -11628539.457 6  21675115.616
  21675115.351   -17098404.628 4 -13323430.870 6  21763274.175
  21763274.019    -5044579.092 2  -3930839.067 5  23394755.686
  23394755.307    -9005813.410 3  -7017516.840 6  22520317.110
  22520316.528    -4143523.258 1  -3228717.603 5  23899673.363
  23899672.312   -12624819.042 4  -9837519.918 6  22060203.913
  22060205.555   -18702416.195 5 -14573309.847 7  21316790.379
  21316790.640    -7467864.323 2  -5819111.874 5  23242106.340
  23242107.269    -6120939.693 1  -4769561.144 5  23628769.381
  23628770.921   -24313954.337 5 -18945936.052 7  20183177.500
  20183177.962     -900829.150 1   -701946.039 5  24756291.509    24756291.986
 03  7 27 21  3 30.0000000  0 11 08 10 15 17 18 21 26 27 28 29 31
                 -14873626.885 4 -11589836.750 6  21684567.016
  21684566.888   -17014998.810 4 -13258439.338 6  21779146.028
  21779145.570    -5111545.174 2  -3983020.400 5  23382012.510
  23382012.205    -8923702.992 3  -6953534.717 6  22535942.917
  22535941.528    -4249154.120 1  -3311027.375 5  23879572.262
  23879572.122   -12603503.581 4  -9820910.472 6  22064260.091
  22064261.609   -18768061.306 5 -14624461.899 7  21304298.513
  21304298.848    -7360389.579 2  -5735365.324 5  23262558.031
  23262557.979    -6216205.098 1  -4843793.893 5  23610640.938
  23610641.995   -24324243.305 5 -18953953.431 7  20181218.195
  20181219.925     -962127.712 1   -749711.125 5  24744626.040    24744624.954
 03  7 27 21  4  0.0000000  0 11 08 10 15 17 18 21 26 27 28 29 31
                 -14823442.077 4 -11550731.669 6  21694116.916
  21694116.846   -16931178.830 4 -13193125.085 6  21795096.506
  21795096.273    -5178049.547 2  -4034841.957 5  23369357.460
  23369356.733    -8841168.038 3  -6889221.774 6  22551647.824
  22551647.684    -4354578.321 2  -3393176.076 5  23859510.568
  23859511.454   -12581585.146 4  -9803831.199 6  22068431.121
  22068432.482   -18833326.590 5 -14675317.972 7  21291878.953
  21291879.267    -7252613.137 2  -5651383.675 5  23283067.462
  23283066.883    -6311120.738 1  -4917754.104 5  23592578.928
  23592580.610   -24333943.163 5 -18961511.770 7  20179373.624
  20179374.091    -1023006.206 1   -797148.990 5  24733048.923    24733042.595
 03  7 27 21  4 30.0000000  0 11 08 10 15 17 18 21 26 27 28 29 31
                 -14772749.079 4 -11511230.602 6  21703763.359
  21703763.111   -16846953.259 3 -13127494.776 6  21811124.171
  21811123.773    -5244096.505 2  -4086307.111 5  23356788.890
  23356788.689    -8758217.611 3  -6824585.090 6  22567433.648
  22567432.375    -4459799.925 2  -3475166.965 5  23839487.076
  23839488.466   -12559071.290 4  -9786288.002 6  22072715.380
  22072716.703   -18898217.310 5 -14725882.180 7  21279530.624
  21279530.987    -7144545.156 2  -5567174.852 5  23303632.097
  23303631.441    -6405690.085 1  -4991444.456 5  23574582.935
  23574584.373   -24343060.106 5 -18968615.901 7  20177637.427
  20177639.287    -1083469.280 1   -844264.928 5  24721533.069    24721537.189
 03  7 27 21  5  0.0000000  0 11 08 10 15 17 18 21 26 27 28 29 31
                 -14721551.119 4 -11471336.063 6  21713506.056
  21713505.777   -16762324.758 3 -13061550.493 6  21827228.435
  21827228.207    -5309685.038 2  -4137415.068 5  23344308.118
  23344306.961    -8674855.443 2  -6759627.576 6  22583296.147
  22583295.644    -4564818.168 2  -3556999.428 5  23819503.425
  23819503.389   -12535963.157 4  -9768281.657 6  22077112.679
  22077114.056   -18962732.794 5 -14776153.992 7  21267253.721
  21267254.151    -7036188.427 2  -5482741.096 5  23324251.251
  23324251.822    -6499911.131 1  -5064863.444 5  23556653.654
  23556655.238   -24351594.997 5 -18975266.477 7  20176014.781
  20176015.015    -1143515.938 1   -891054.768 5  24710110.565    24710106.431
 03  7 27 21  5 30.0000000  0 11 08 10 15 17 18 21 26 27 28 29 31
                 -14669841.619 4 -11431042.939 6  21723345.953
  21723345.923   -16677287.253 3 -12995287.496 6  21843410.461
  21843410.067    -5374805.073 2  -4188157.949 5  23331916.164
  23331915.083    -8591076.101 2  -6694344.949 6  22599239.417
  22599238.602    -4669622.306 1  -3638664.942 5  23799559.122
  23799559.955   -12512253.777 4  -9749806.799 6  22081624.395
  22081625.834   -19026863.727 5 -14826126.155 7  21255050.051
  21255050.530    -6927538.689 2  -5398078.983 5  23344927.335
  23344926.040    -6593772.600 1  -5138002.228 5  23538791.577
  23538793.407   -24359539.715 5 -18981457.184 7  20174501.498
  20174503.252    -1203135.440 1   -937511.566 5  24698764.136    24698763.604
 03  7 27 21  6  0.0000000  0 11 08 10 15 17 18 21 26 27 28 29 31
                 -14617623.898 4 -11390353.782 6  21733282.658
  21733282.701   -16591844.238 3 -12928708.534 6  21859669.869
  21859669.274    -5439455.974 2  -4238535.360 5  23319613.453
  23319613.059    -8506883.210 2  -6628740.069 6  22615260.304
  22615259.855    -4774211.923 2  -3720163.309 5  23779656.927
  23779656.958   -12487945.626 4  -9730865.393 6  22086250.130
  22086251.591   -19090609.943 5 -14875798.515 7  21242919.638
  21242919.976    -6818599.644 2  -5313191.435 5  23365657.520
  23365657.761    -6687272.809 1  -5210859.504 5  23521000.092
  23521000.103   -24366895.428 5 -18987188.931 7  20173103.130
  20173103.507    -1262327.567 1   -983635.267 5  24687502.285    24687501.746
 03  7 27 21  6 30.0000000  0 11 08 10 15 17 18 21 26 27 28 29 31
                 -14564896.596 4 -11349267.572 6  21743316.464
  21743316.468   -16505994.504 3 -12861812.635 6  21876006.538
  21876006.233    -5503632.339 2  -4288543.079 5  23307401.529
  23307400.898    -8422276.566 2  -6562812.811 6  22631360.803
  22631359.623    -4878581.140 1  -3801489.937 5  23759795.921
  23759796.228   -12463036.271 4  -9711455.535 6  22090990.305
  22090991.617   -19153966.868 5 -14925167.521 7  21230863.141
  21230863.528    -6709371.567 2  -5228078.646 5  23386442.550
  23386442.836    -6780405.328 1  -5283430.255 5  23503277.212
  23503278.022   -24373658.707 5 -18992459.054 7  20171814.572
  20171816.545    -1321086.820 1  -1029421.589 5  24676318.920    24676319.134
 03  7 27 21  7  0.0000000  0 11 08 10 15 17 18 21 26 27 28 29 31
                 -14511675.368 4 -11307796.499 6  21753444.209
  21753444.077   -16419753.838 3 -12794612.121 6  21892417.342
  21892417.242    -5567345.819 2  -4338190.148 5  23295277.157
  23295276.519    -8337272.440 2  -6496575.876 6  22647536.271
  22647535.902    -4982741.785 1  -3882654.045 5  23739975.028
  23739975.282   -12437540.236 4  -9691588.454 6  22095841.965
  22095843.395   -19216946.838 5 -14974242.818 7  21218878.512
  21218878.877    -6599870.471 2  -5142753.100 5  23407279.660
  23407280.090    -6873180.833 2  -5355722.835 5  23485622.464
  23485623.059   -24379843.132 5 -18997278.100 7  20170639.388
  20170639.691    -1379424.921 1  -1074879.755 5  24665218.192    24665216.599
 03  7 27 21  7 30.0000000  0 11 08 10 15 17 18 21 26 27 28 29 31
                 -14457957.028 4 -11265938.072 6  21763666.411
  21763666.389   -16333119.513 3 -12727104.867 6  21908903.505
  21908903.212    -5630589.275 2  -4387470.866 5  23283242.269
  23283241.847    -8251868.369 2  -6430027.253 6  22663788.721
  22663787.418    -5086686.894 2  -3963650.223 5  23720194.104
  23720196.029   -12411453.672 4  -9671261.223 6  22100806.003
  22100807.561   -19279543.504 5 -15023019.430 7  21206966.664
  21206967.178    -6490094.509 2  -5057213.428 5  23428169.834
  23428169.577    -6965591.623 2  -5427731.225 5  23468037.919
  23468038.706   -24385443.846 5 -19001642.293 7  20169571.987
  20169573.792    -1437335.110 1  -1120004.406 5  24654197.947    24654198.863
 03  7 27 21  8  0.0000000  0 11 08 10 15 17 18 21 26 27 28 29 31
                 -14403726.748 4 -11223680.720 6  21773986.062
  21773985.938   -16246076.198 3 -12659278.897 6  21925467.160
  21925466.871    -5693343.632 2  -4436370.352 5  23271300.474
  23271299.835    -8166050.169 2  -6363155.912 6  22680118.873
  22680118.353    -5190396.985 2  -4044463.278 5  23700459.333
  23700460.512   -12384760.780 4  -9650461.553 6  22105885.343
  22105887.000   -19341738.530 5 -15071483.087 7  21195131.434
  21195131.679    -6380029.929 1  -4971448.774 5  23449114.941
  23449114.068    -7057617.460 2  -5499439.682 5  23450525.485
  23450526.550   -24390443.713 5 -19005538.308 7  20168621.963
  20168622.539    -1494798.387 1  -1164780.815 5  24643263.151    24643263.413
 03  7 27 21  8 30.0000000  0 11 08 10 15 17 18 21 26 27 28 29 31
                 -14348995.048 4 -11181032.659 6  21784401.340
  21784401.180   -16158634.499 3 -12591142.494 6  21942107.086
  21942106.421    -5755615.519 2  -4484893.788 5  23259450.331
  23259449.970    -8079829.040 2  -6295970.590 6  22696526.489
  22696525.629    -5293878.289 2  -4125098.080 5  23680767.717
  23680768.685   -12357471.040 4  -9629196.846 6  22111078.542
  22111079.803   -19403539.249 5 -15119639.492 7  21183371.172
  21183371.337    -6269688.188 2  -4885468.228 5  23470111.378
  23470112.396    -7149263.901 2  -5570852.496 5  23433085.558
  23433086.215   -24394851.332 5 -19008972.792 7  20167781.879
  20167783.740    -1551821.552 1  -1209214.367 5  24632411.028    24632409.112
 03  7 27 21  9  0.0000000  0 11 08 10 15 17 18 21 26 27 28 29 31
                 -14293768.172 4 -11137998.728 6  21794910.529
  21794910.135   -16070801.264 3 -12522701.019 6  21958820.603
  21958820.546    -5817407.682 2  -4533043.440 5  23247691.559
  23247691.463    -7993212.207 2  -6228476.966 6  22713009.099
  22713008.503    -5397133.284 2  -4205556.589 5  23661118.631
  23661120.085   -12329589.995 4  -9607471.419 6  22116384.331
  22116385.611   -19464948.746 5 -15167491.053 7  21171685.294
  21171685.606    -6159076.653 1  -4799277.459 5  23491159.753
  23491160.002    -7240532.467 2  -5641970.888 5  23415717.653
  23415718.811   -24398671.174 5 -19011949.258 7  20167056.463
  20167056.736    -1608407.136 1  -1253306.995 5  24621644.817    24621643.858
 03  7 27 21  9 30.0000000  0 11 08 10 15 17 18 21 26 27 28 29 31
                 -14238066.478 4 -11094594.814 6  21805510.133
  21805510.004   -15982596.815 3 -12453970.279 6  21975605.791
  21975605.331    -5878736.507 2  -4580832.051 5  23236021.002
  23236020.914    -7906220.810 2  -6160691.465 6  22729562.978
  22729562.278    -5500178.153 2  -4285851.401 5  23641510.035
  23641511.170   -12301136.804 4  -9585300.103 6  22121798.681
  22121800.048   -19525983.846 5 -15215050.867 7  21160070.726
  21160070.989    -6048216.687 1  -4712893.123 5  23512259.956
  23512256.490    -7331438.573 2  -5712806.866 5  23398419.387
  23398420.019   -24401921.690 5 -19014482.093 7  20166436.416
  20166438.309    -1664571.477 1  -1297071.415 5  24610954.347    24610955.008
 03  7 27 21 10  0.0000000  0 11 08 10 15 17 18 21 26 27 28 29 31
                 -14181865.626 4 -11050801.968 6  21816204.799
  21816204.775   -15893996.714 3 -12384931.212 6  21992465.374
  21992465.253    -5939573.528 2  -4628237.454 5  23224444.176
  23224443.441    -7818831.098 2  -6092595.625 6  22746192.597
  22746191.596    -5602984.046 2  -4365959.961 5  23621946.927
  23621947.389   -12272086.174 4  -9562663.231 6  22127326.777
  22127328.383   -19586616.841 5 -15262297.343 7  21148532.693
  21148532.784    -5937084.944 1  -4626297.010 5  23533404.290
  23533403.896    -7421952.724 2  -5783337.513 5  23381195.051
  23381196.026   -24404576.407 5 -19016550.670 7  20165932.607
  20165933.079    -1720286.234 1  -1340485.548 5  24600354.049    24600352.063
 03  7 27 21 10 30.0000000  0 11 08 10 15 17 18 21 26 27 28 29 31
                 -14125192.219 4 -11006640.938 6  21826989.502
  21826989.407   -15805027.294 3 -12315604.368 6  22009396.242
  22009395.445    -5999941.320 2  -4675277.245 5  23212956.413
  23212956.269    -7731069.982 2  -6024210.401 6  22762893.217
  22762892.062    -5705573.118 2  -4445899.549 5  23602424.988
  23602425.377   -12242464.178 4  -9539581.166 6  22132963.664
  22132965.270   -19646870.979 5 -15309248.628 7  21137066.634
  21137066.805    -5825708.063 1  -4539509.824 5  23554597.231
  23554598.950    -7512096.291 2  -5853579.456 5  23364041.458
  23364042.948   -24406659.899 5 -19018174.159 7  20165534.640
  20165536.524    -1775573.812 1  -1383566.885 5  24589833.129    24589832.063
 03  7 27 21 11  0.0000000  0 11 08 10 15 17 18 21 26 27 28 29 31
                 -14068023.851 4 -10962094.224 6  21837868.361
  21837868.383   -15715666.744 3 -12245972.750 6  22026400.498
  22026400.314    -6059813.912 2  -4721931.166 5  23201562.937
  23201563.220    -7642916.136 2  -5955519.122 6  22779667.993
  22779667.298    -5807919.108 2  -4525649.609 5  23582948.944
  23582950.381   -12212247.553 4  -9516035.737 6  22138713.874
  22138715.341   -19706720.516 5 -15355884.627 7  21125677.600
  21125677.919    -5714065.385 1  -4452515.572 5  23575842.329
  23575843.706    -7601842.053 2  -5923511.332 5  23346963.654
  23346964.336   -24408147.943 5 -19019333.653 7  20165252.929
  20165253.347    -1830408.416 1  -1426295.122 5  24579397.636    24579398.371
 03  7 27 21 11 30.0000000  0 11 08 10 15 17 18 21 26 27 28 29 31
                 -14010384.629 4 -10917180.571 6  21848836.773
  21848836.839   -15625939.167 3 -12176055.145 6  22043475.682
  22043474.945    -6119211.117 2  -4768214.646 5  23190260.106
  23190259.302    -7554394.279 2  -5886541.067 5  22796513.838
  22796512.187    -5910042.036 2  -4605225.927 5  23563515.869
  23563516.511   -12181458.987 4  -9492044.616 6  22144572.619
  22144573.924   -19766186.381 5 -15402221.667 7  21114361.618
  21114361.904    -5602181.581 1  -4365333.380 5  23597134.362
  23597134.984    -7691208.918 2  -5993147.840 5  23329957.397
  23329959.063   -24409062.753 5 -19020046.475 7  20165077.480
  20165079.301    -1884809.800 1  -1468685.813 5  24569047.338    24569046.603
 03  7 27 21 12  0.0000000  0 11 08 10 15 17 18 21 26 27 28 29 31
                 -13952250.957 4 -10871881.603 6  21859899.137
  21859899.152   -15535821.167 3 -12105833.328 6  22060623.916
  22060623.697    -6178105.393 2  -4814106.230 5  23179052.888
  23179052.424    -7465481.582 2  -5817258.433 5  22813432.523
  22813432.156    -6011913.856 2  -4684606.541 5  23544129.887
  23544130.272   -12150074.590 4  -9467589.199 6  22150544.900
  22150546.174   -19825241.505 5 -15448238.645 7  21103123.716
  21103124.204    -5490034.617 1  -4277946.171 5  23618475.874
  23618475.031    -7780168.254 2  -6062466.653 5  23313028.743
  23313030.757   -24409378.882 5 -19020292.812 7  20165018.610
  20165019.148    -1938750.907 1  -1510717.820 5  24558780.004    24558780.255
 03  7 27 21 12 30.0000000  0 11 08 10 15 17 18 21 26 27 28 29 31
                 -13893618.402 4 -10826193.878 6  21871056.553
  21871056.498   -15445308.733 3 -12035304.158 6  22077848.746
  22077847.570    -6236488.704 2  -4859599.660 5  23167942.964
  23167942.638    -7376174.435 2  -5747668.409 5  22830427.721
  22830426.888    -6113526.020 2  -4763784.800 5  23524793.612
  23524794.984   -12118089.508 4  -9442665.771 6  22156631.434
  22156632.823   -19883878.362 5 -15493929.688 7  21091965.511
  21091965.943    -5377620.394 1  -4190350.705 5  23639866.839
  23639867.586    -7868711.122 2  -6131460.984 5  23296179.463
  23296181.532   -24409090.040 5 -19020067.732 7  20165072.193
  20165074.104    -1992223.314 1  -1552384.638 5  24548607.650    24548605.014
 03  7 27 21 13  0.0000000  0 11 08 10 15 17 18 21 26 27 28 29 31
                 -13834509.395 4 -10780134.890 6  21882304.660
  21882304.408   -15354423.842 3 -11964484.770 6  22095142.333
  22095142.644    -6294379.392 2  -4904709.250 5  23156926.647
  23156926.233    -7286495.591 2  -5677788.767 5  22847492.397
  22847491.783    -6214896.626 2  -4842774.812 5  23505503.319
  23505504.538   -12085524.489 4  -9417290.423 6  22162828.260
  22162829.619   -19942115.483 5 -15539309.194 7  21080883.251
  21080883.724    -5264962.431 1  -4102565.311 5  23661308.076
  23661305.651    -7956854.667 2  -6200144.175 5  23279406.367
  23279406.877   -24408216.491 5 -19019387.047 7  20165240.024
  20165240.305    -2045245.443 1  -1593700.599 5  24538515.850    24538516.798
 03  7 27 21 13 30.0000000  0 11 08 10 15 17 18 21 26 27 28 29 31
                 -13774922.971 4 -10733703.893 6  21893643.610
  21893643.377   -15263165.599 3 -11893374.455 6  22112509.018
  22112508.104    -6351772.592 2  -4949431.182 5  23146005.560
  23146004.273    -7196444.975 2  -5607619.434 5  22864629.102
  22864628.010    -6316020.365 2  -4921572.540 5  23486260.311
  23486261.377   -12052377.974 4  -9391461.950 6  22169135.941
  22169137.267   -19999948.987 5 -15584374.288 7  21069877.995
  21069878.352    -5152060.026 1  -4014589.470 5  23682789.389
  23682790.374    -8044593.028 2  -6268511.703 5  23262710.470
  23262711.346   -24406755.454 5 -19018248.580 7  20165516.569
  20165518.391    -2097812.446 1  -1634661.824 5  24528512.451    24528511.452
 03  7 27 21 14  0.0000000  0 11 08 10 15 17 18 21 26 27 28 29 31
                 -13714859.931 4 -10686901.514 6  21905073.285
  21905073.089   -15171535.043 3 -11821974.027 6  22129945.159
  22129945.441    -6408665.014 2  -4993762.877 5  23135178.753
  23135178.046    -7106024.039 2  -5537161.543 5  22881835.144
  22881834.686    -6416893.678 2  -5000175.062 5  23467064.940
  23467065.616   -12018649.966 4  -9365180.383 6  22175554.059
  22175555.521   -20057376.168 5 -15629122.719 7  21058949.925
  21058950.365    -5038915.268 1  -3926424.742 5  23704320.958
  23704320.230    -8131921.861 2  -6336560.086 5  23246092.048
  23246093.221   -24404705.803 5 -19016651.442 7  20165908.092
  20165908.307    -2149921.156 1  -1675266.056 5  24518597.755    24518596.120
 03  7 27 21 14 30.0000000  0 11 08 10 15 17 18 21 26 27 28 29 31
                 -13654319.854 4 -10639727.417 6  21916593.588
  21916593.279   -15079531.648 3 -11750283.085 6  22147453.573
  22147452.809    -6465052.394 2  -5037701.046 5  23124448.569
  23124448.034    -7015233.248 2  -5466415.477 5  22899112.536
  22899111.680    -6517511.991 2  -5078578.913 5  23447917.967
  23447918.622   -11984339.035 4  -9338444.607 6  22182083.175
  22182084.613   -20114393.253 5 -15673551.610 7  21048099.963
  21048100.396    -4925528.426 1  -3838071.417 5  23725896.234
  23725897.978    -8218835.748 2  -6404285.138 5  23229552.988
  23229554.175   -24402065.289 5 -19014593.896 7  20166409.093
  20166410.923    -2201567.699 1  -1715510.194 4  24508769.540    24508769.270
 03  7 27 21 15  0.0000000  0 11 08 10 15 17 18 21 26 27 28 29 31
                 -13593315.069 4 -10592191.223 6  21928202.667
  21928202.189   -14987167.740 3 -11678311.235 6  22165028.968
  22165029.201    -6520943.208 2  -5081252.299 5  23113812.671
  23113812.602    -6924085.306 2  -5395391.113 5  22916457.037
  22916456.512    -6617883.222 2  -5156790.161 5  23428817.703
  23428818.144   -11949457.484 4  -9311264.163 6  22188720.930
  22188722.623   -20171009.163 5 -15717667.881 7  21037326.219
  21037326.795    -4811912.712 1  -3749539.752 5  23747518.462
  23747518.044    -8305342.112 2  -6471692.663 5  23213091.035
  23213092.384   -24398844.357 5 -19012084.086 7  20167023.609
  20167023.898    -2252760.273 1  -1755400.583 5  24499028.945    24499026.897
 03  7 27 21 15 30.0000000  0 11 08 10 15 17 18 21 26 27 28 29 31
                 -13531847.041 4 -10544294.055 6  21939899.585
  21939899.150   -14894444.931 3 -11606059.713 6  22182674.167
  22182673.860    -6576335.091 2  -5124414.813 5  23103272.119
  23103271.746    -6832582.490 2  -5324090.246 5  22933869.627
  22933869.040    -6718004.455 2  -5234806.584 5  23409765.172
  23409766.122   -11914005.272 4  -9283639.041 6  22195467.253
  22195468.856   -20227221.932 5 -15761470.018 7  21026629.356
  21026629.895    -4698070.641 1  -3660831.726 5  23769181.299
  23769181.618    -8391437.051 2  -6538779.586 5  23196708.048
  23196709.183   -24395042.573 5 -19009121.672 7  20167745.532
  20167747.220    -2303496.285 1  -1794935.126 4  24489372.142    24489372.964
 03  7 27 21 16  0.0000000  0 11 08 10 15 17 18 21 26 27 28 29 31
                 -13469911.094 4 -10496032.283 6  21951685.487
  21951685.140   -14801358.831 3 -11533525.092 6  22200387.224
  22200387.351    -6631219.441 2  -5167181.881 5  23092827.879
  23092827.476    -6740720.824 2  -5252509.742 5  22951350.485
  22951349.582    -6817866.742 2  -5312621.293 5  23390761.836
  23390762.788   -11877977.497 4  -9255565.438 6  22202323.065
  22202324.500   -20283023.623 5 -15804951.863 7  21016010.681
  21016010.998    -4583997.311 1  -3571943.459 5  23790889.969
  23790887.945    -8477111.274 2  -6605538.696 5  23180404.758
  23180405.337   -24390653.418 5 -19005701.596 7  20168582.202
  20168582.608    -2353767.288 1  -1834107.353 4  24479806.883    24479807.266
 03  7 27 21 16 30.0000000  0 11 08 10 15 17 18 21 26 27 28 29 31
                 -13407509.973 4 -10447408.009 6  21963560.019
  21963559.569   -14707912.003 3 -11460709.389 6  22218170.406
  22218169.743    -6685595.490 2  -5209553.040 5  23082480.696
  23082480.284    -6648503.694 2  -5180652.248 5  22968898.604
  22968898.073    -6917468.385 2  -5390232.915 5  23371807.608
  23371809.234   -11841375.742 4  -9227044.560 6  22209288.135
  22209289.436   -20338413.619 5 -15848112.877 7  21005470.273
  21005470.621    -4469697.570 1  -3482878.755 5  23812639.040
  23812639.405    -8562362.337 2  -6671968.067 5  23164181.992
  23164182.787   -24385677.882 5 -19001824.554 7  20169527.599
  20169529.308    -2403572.454 1  -1872916.585 5  24470328.876    24470330.403
 03  7 27 21 17  0.0000000  0 11 08 10 15 17 18 21 26 27 28 29 31
                 -13344634.052 4 -10398413.769 6  21975524.972
  21975524.713   -14614095.047 3 -11387605.304 6  22236022.533
  22236022.527    -6739449.094 2  -5251517.102 5  23072232.904
  23072232.857    -6555921.885 2  -5108510.581 5  22986516.246
  22986515.314    -7016795.257 2  -5467630.442 5  23352906.612
  23352908.094   -11804189.659 4  -9198068.372 6  22216364.454
  22216365.818   -20393378.796 5 -15890942.929 7  20995010.793
  20995011.205    -4355161.428 1  -3393629.853 5  23834434.541
  23834436.303    -8647175.602 2  -6738056.289 5  23148042.201
  23148043.286   -24380104.012 5 -18997481.230 7  20170589.694
  20170590.039    -2452897.944 1  -1911351.999 5  24460943.240    24460942.116
 03  7 27 21 17 30.0000000  0 11 08 10 15 17 18 21 26 27 28 29 31
                 -13281298.807 4 -10349061.652 6  21987577.264
  21987576.965   -14519923.341 3 -11314224.759 6  22253943.327
  22253942.634    -6792791.640 2  -5293082.802 5  23062082.421
  23062081.518    -6462991.753 2  -5036097.491 5  23004200.072
  23004199.466    -7115858.644 2  -5544822.715 5  23334055.599
  23334056.778   -11766434.161 4  -9168648.495 6  22223549.151
  22223550.402   -20447931.093 5 -15933451.216 7  20984629.840
  20984630.313    -4240405.399 1  -3304209.572 5  23856270.921
  23856271.539    -8731561.569 2  -6803811.552 5  23131984.323
  23131985.158   -24373945.768 5 -18992682.572 7  20171760.070
  20171761.813    -2501755.324 1  -1949422.662 5  24451645.414    24451645.447
 03  7 27 21 18  0.0000000  0 11 08 10 15 17 18 21 26 27 28 29 31
                 -13217506.937 3 -10299353.676 6  21999716.382
  21999716.026   -14425399.711 3 -11240569.992 6  22271930.250
  22271929.999    -6845622.046 2  -5334249.281 5  23052028.984
  23052028.543    -6369716.686 2  -4963415.652 5  23021950.328
  23021949.529    -7214656.952 2  -5621808.424 5  23315255.240
  23315256.575   -11728111.333 4  -9138786.539 6  22230841.732
  22230843.198   -20502070.118 5 -15975637.492 8  20974327.608
  20974327.958    -4125433.410 1  -3214621.077 5  23878151.901
  23878148.420    -8815517.961 2  -6869232.109 5  23116008.181
  23116008.357   -24367204.192 5 -18987429.385 7  20173044.461
  20173044.701    -2550143.863 2  -1987128.037 5  24442437.187    24442436.644
 03  7 27 21 18 30.0000000  0 11 08 10 15 17 18 21 26 27 28 29 31
                 -13153252.046 3 -10249284.900 6  22011943.713
  22011943.361   -14330517.882 3 -11166636.093 6  22289986.049
  22289985.344    -6897929.965 2  -5375008.567 5  23042074.740
  23042074.288    -6276090.915 2  -4890460.576 5  23039766.061
  23039765.695    -7313179.354 2  -5698579.137 5  23296507.194
  23296508.065   -11689214.079 4  -9108476.995 6  22238243.484
  22238245.214   -20555785.896 5 -16017493.943 8  20964105.840
  20964106.217    -4010239.088 1  -3124859.253 5  23900071.780
  23900070.953    -8899033.287 2  -6934309.016 5  23100115.518
  23100116.748   -24359870.881 5 -18981715.103 7  20174438.458
  20174440.258    -2598053.518 2  -2024460.376 5  24433321.395    24433320.940
 03  7 27 21 19  0.0000000  0 11 08 10 15 17 18 21 26 27 28 29 31
                 -13088546.190 4 -10198864.757 6  22024256.494
  22024256.199   -14235289.783 3 -11092432.370 6  22308106.717
  22308106.596    -6949724.015 2  -5415367.445 5  23032218.643
  23032218.161    -6182126.995 2  -4817241.995 5  23057647.766
  23057646.006    -7411433.278 2  -5775140.575 5  23277809.697
  23277810.298   -11649753.473 3  -9077728.470 6  22245752.560
  22245754.163   -20609087.010 5 -16059027.286 8  20953963.006
  20953963.341    -3894835.742 1  -3034934.692 5  23922031.916
  23922032.753    -8982114.536 2  -6999047.623 5  23084305.434
  23084306.581   -24351956.148 5 -18975547.778 7  20175945.952
  20175946.228    -2645492.206 2  -2061425.695 5  24424291.773    24424293.073
 03  7 27 21 19 30.0000000  0 11 08 10 15 17 18 21 26 27 28 29 31
                 -13023377.834 3 -10148084.230 6  22036657.874
  22036657.579   -14139704.130 3 -11017950.048 6  22326296.719
  22326296.271    -7000988.723 2  -5455313.883 5  23022463.020
  23022463.129    -6087814.224 2  -4743751.572 5  23075594.306
  23075593.674    -7509402.996 2  -5851480.521 5  23259166.626
  23259167.657   -11609717.586 3  -9046531.661 6  22253371.407
  22253372.676   -20661958.714 5 -16100225.999 8  20943901.800
  20943902.180    -3779211.994 1  -2944838.417 5  23944035.791
  23944034.086    -9064745.069 2  -7063434.995 5  23068581.619
  23068582.108   -24343446.621 5 -18968916.993 7  20177563.976
  20177565.718    -2692444.501 2  -2098012.031 5  24415360.278    24415358.595
 03  7 27 21 20  0.0000000  0 11 08 10 15 17 18 21 26 27 28 29 31
                 -12957768.382 3 -10096959.980 6  22049142.706
  22049142.678   -14043782.081 2 -10943205.574 6  22344549.410
  22344549.303    -7051741.856 2  -5494861.789 5  23012805.203
  23012805.183    -5993174.496 2  -4670006.386 5  23093604.008
  23093603.307    -7607105.524 2  -5927612.307 5  23240574.315
  23240575.576   -11569127.220 3  -9014902.787 6  22261095.403
  22261096.519   -20714418.960 5 -16141104.094 8  20933918.891
  20933919.421    -3663390.163 1  -2854587.641 5  23966075.529
  23966074.060    -9146941.559 2  -7127484.190 5  23052940.219
  23052941.408   -24334361.995 5 -18961838.068 7  20179294.169
  20179294.498    -2738927.614 1  -2134232.585 5  24406513.122    24406513.476
 03  7 27 21 20 30.0000000  0 11 08 10 15 17 18 21 26 27 28 29 31
                 -12891722.796 3 -10045495.884 6  22061710.875
  22061710.643   -13947528.699 2 -10868202.937 6  22362866.696
  22362865.678    -7101984.123 2  -5534011.563 5  23003244.257
  23003243.902    -5898213.427 2  -4596010.781 5  23111674.566
  23111673.631    -7704541.301 2  -6003536.279 5  23222032.712
  23222034.101   -11527986.361 3  -8982844.973 6  22268924.126
  22268925.512   -20766469.251 5 -16181662.747 8  20924014.058
  20924014.457    -3547375.466 1  -2764186.497 5  23988151.202
  23988151.877    -9228703.952 2  -7191195.097 5  23037381.147
  23037382.405   -24324705.244 5 -18954313.322 7  20181130.482
  20181132.044    -2784943.104 1  -2170088.662 5  24397756.020    24397756.313
 03  7 27 21 21  0.0000000  0 11 08 10 15 17 18 21 26 27 28 29 31
                 -12825224.948 4  -9993679.395 6  22074365.046
  22074364.943   -13850927.936 2 -10792929.614 6  22381248.409
  22381248.590    -7151695.826 2  -5572747.888 5  22993784.494
  22993783.880    -5802915.423 2  -4521752.630 5  23129809.117
  23129808.271    -7801689.587 2  -6079236.207 5  23203545.965
  23203546.995   -11486278.241 3  -8950345.150 6  22276860.949
  22276862.391   -20818089.934 5 -16221886.628 8  20914190.892
  20914191.360    -3431153.048 1  -2673623.478 5  24010267.132
  24010267.628    -9310010.835 2  -7254551.102 5  23021908.868
  23021909.825   -24314458.624 5 -18946328.930 7  20183081.624
  20183081.929    -2830471.278 1  -2205565.178 5  24389094.822    24389092.584
 03  7 27 21 21 30.0000000  0 11 08 10 15 17 18 21 26 27 28 29 31
                 -12758290.385 4  -9941522.587 6  22087102.261
  22087102.393   -13753995.293 3 -10717397.692 6  22399694.912
  22399694.164    -7200888.531 2  -5611079.799 5  22984423.341
  22984423.476    -5707296.754 2  -4447244.615 5  23148004.859
  23148003.844    -7898561.633 2  -6154720.878 5  23185111.571
  23185112.982   -11444018.076 3  -8917415.147 6  22284902.888
  22284904.062   -20869293.414 5 -16261785.438 8  20904447.205
  20904447.609    -3314738.440 1  -2582910.772 5  24032418.931
  24032420.946    -9390872.893 2  -7317560.478 5  23006521.492
  23006522.259   -24303635.739 5 -18937895.500 7  20185139.840
  20185141.281    -2875523.705 1  -2240670.857 5  24380516.498    24380519.664
 03  7 27 21 22  0.0000000  0 11 08 10 15 17 18 21 26 27 28 29 31
                 -12690922.588 4  -9889028.205 6  22099921.826
  22099922.055   -13656734.379 2 -10641609.982 6  22418202.382
  22418202.146    -7249561.874 2  -5649007.004 5  22975161.093
  22975160.664    -5611361.543 2  -4372489.947 5  23166260.106
  23166259.437    -7995156.288 2  -6229989.400 5  23166730.316
  23166731.410   -11401208.198 3  -8884056.823 6  22293049.315
  22293050.635   -20920079.655 5 -16301359.136 8  20894782.902
  20894783.347    -3198136.358 1  -2492052.057 5  24054610.339
  24054606.905    -9471288.566 2  -7380222.032 5  22991218.951
  22991219.904   -24292238.510 5 -18929014.547 7  20187309.901
  20187310.163    -2920100.009 1  -2275405.641 5  24372039.582    24372037.186
 03  7 27 21 22 30.0000000  0 11 08 10 15 17 18 21 26 27 28 29 31
                 -12623099.690 4  -9836179.216 6  22112828.276
  22112828.101   -13559123.413 2 -10565549.486 6  22436777.860
  22436777.056    -7297690.366 2  -5686509.696 5  22966002.613
  22966002.014    -5515088.649 2  -4297472.160 5  23184581.098
  23184579.669    -8091447.503 2  -6305021.507 5  23148407.001
  23148408.215   -11357826.677 3  -8850253.026 6  22301304.546
  22301305.759   -20970423.551 5 -16340588.141 8  20885202.920
  20885203.262    -3081324.923 1  -2401030.272 5  24076839.270
  24076839.046    -9551231.474 2  -7442515.194 5  22976006.212
  22976007.197   -24280243.240 5 -18919667.581 7  20189591.146
  20189592.836    -2964174.613 1  -2309749.399 5  24363652.394    24363650.930
 03  7 27 21 23  0.0000000  0 11 08 10 15 17 18 21 26 27 28 29 31
                 -12554831.248 4  -9782983.068 6  22125819.322
  22125819.231   -13461171.715 2 -10489223.521 6  22455416.480
  22455416.752    -7345279.443 2  -5723592.133 5  22956946.899
  22956946.090    -5418487.886 2  -4222198.842 5  23202963.413
  23202962.739    -8187440.441 2  -6379821.180 5  23130139.977
  23130141.309   -11313882.615 3  -8816010.907 6  22309666.666
  22309668.095   -21020330.737 5 -16379476.850 8  20875705.861
  20875706.191    -2964314.261 1  -2309853.030 4  24099100.848
  24099103.348    -9630705.736 2  -7504443.188 5  22960882.586
  22960883.764   -24267657.599 5 -18909860.581 7  20191987.450
  20191987.812    -3007753.110 1  -2343706.535 5  24355359.222    24355357.888
 03  7 27 21 23 30.0000000  0 11 08 10 15 17 18 21 26 27 28 29 31
                 -12486133.636 4  -9729452.484 6  22138891.976
  22138891.898   -13362895.894 2 -10412644.973 6  22474118.612
  22474117.760    -7392341.826 2  -5760264.123 5  22947991.031
  22947990.905    -5321576.649 2  -4146683.614 5  23221405.416
  23221403.892    -8283146.725 2  -6454397.478 5  23111927.728
  23111929.106   -11269391.569 3  -8781342.555 6  22318133.333
  22318134.372   -21069814.601 5 -16418035.689 8  20866289.251
  20866289.691    -2847122.355 1  -2218534.705 3  24121407.724
  24121405.700    -9709722.819 2  -7566014.947 5  22945846.197
  22945847.055   -24254496.543 5 -18899605.206 7  20194490.726
  20194492.306    -3050848.575 1  -2377287.541 5  24347152.203    24347155.672
 03  7 27 21 24  0.0000000  0 11 08 10 15 17 18 21 26 27 28 29 31
                 -12416994.316 3  -9675577.711 6  22152048.495
  22152048.606   -13264283.451 2 -10335804.141 5  22492882.955
  22492883.550    -7438861.159 2  -5796512.945 5  22939139.091
  22939138.235    -5224342.600 2  -4070916.849 5  23239907.666
  23239907.376    -8378549.067 2  -6528736.943 5  23093773.294
  23093774.355   -11224340.134 3  -8746237.540 6  22326706.247
  22326707.392   -21118859.122 5 -16456252.193 8  20856956.345
  20856956.847    -2729735.655 1  -2127064.007 2  24143744.914
  24143740.474    -9788265.176 2  -7627216.845 5  22930900.307
  22930901.240   -24240745.525 5 -18888890.115 7  20197108.677
  20197108.951    -3093444.468 1  -2410478.898 5  24339051.681    24339051.351
 03  7 27 21 24 30.0000000  0 10 08 10 15 17 18 21 26 28 29 31
                 -12347434.139 3  -9621374.952 6  22165285.451
  22165285.719   -13165355.451 2 -10258717.379 5  22511709.376
  22511708.598    -7484855.042 2  -5832352.344 5  22930386.637
  22930386.390    -5126807.814 2  -3994915.736 5  23258468.519
  23258467.541    -8473664.168 2  -6602852.543 5  23075673.325
  23075674.616   -11178749.021 3  -8710711.994 6  22335381.927
  22335383.136   -21167481.908 5 -16494140.073 8  20847703.656
  20847704.145    -9866348.614 2  -7688061.095 5  22916041.198
  22916041.972   -24226424.057 5 -18877730.525 7  20199832.603
  20199834.119    -3135558.293 2  -2443294.840 5  24331035.327    24331038.054
 03  7 27 21 25  0.0000000  0 10 08 10 15 17 18 21 26 28 29 31
                 -12277434.995 3  -9566830.155 6  22178605.883
  22178606.166   -13066093.490 2 -10181370.387 5  22530597.191
  22530597.802    -7530301.082 2  -5867764.852 5  22921738.394
  22921738.093    -5028954.246 2  -3918666.248 5  23277089.151
  23277088.096    -8568469.136 2  -6676726.531 5  23057632.474
  23057633.560   -11132599.069 3  -8674750.977 6  22344163.905
  22344165.200   -21215661.202 5 -16531682.374 8  20838535.522
  20838535.892    -9943949.763 2  -7748529.522 5  22901274.187
  22901275.594   -24211511.969 5 -18866110.704 7  20202671.596
  20202671.889    -3177167.820 2  -2475717.827 5  24323118.802    24323117.638
 03  7 27 21 25 30.0000000  0 11 03 08 10 15 17 18 21 26 28 29 31
                         -.40111          .25515  24000641.772
  24000640.144   -12207000.784 3  -9511946.356 6  22192009.133
  22192009.114   -12966501.513 2 -10103766.247 5  22549549.922
  22549549.126    -7575199.464 2  -5902750.613 5  22913194.518
  22913193.991    -4930786.661 2  -3842172.072 5  23295770.293
  23295769.371    -8662963.234 2  -6750358.263 5  23039651.123
  23039652.437   -11085894.032 3  -8638357.420 6  22353051.572
  22353052.834   -21263397.728 5 -16568879.662 8  20829451.597
  20829451.915   -10021067.711 2  -7808621.424 5  22886599.163
  22886600.242   -24196011.598 5 -18854032.493 7  20205619.803
  20205621.449    -3218273.408 2  -2507748.292 5  24315296.650    24315296.094
 03  7 27 21 26  0.0000000  0 11 03 08 10 15 17 18 21 26 28 29 31
                     13383.404 1     10429.257 5  24003187.975
  24003186.998   -12136151.263 3  -9456738.929 6  22205491.243
  22205491.391   -12866599.408 2 -10025920.454 5  22568559.852
  22568560.128    -7619566.296 2  -5937322.140 5  22904751.891
  22904751.483    -4832325.254 2  -3765448.916 5  23314506.230
  23314505.596    -8757162.189 2  -6823760.062 5  23021725.249
  23021726.355   -11038653.533 3  -8601546.649 6  22362040.935
  22362042.437   -21310707.599 5 -16605744.496 8  20820448.773
  20820449.292   -10097717.675 2  -7868348.683 5  22872013.644
  22872013.996   -24179941.006 5 -18841509.958 7  20208679.461
  20208679.597    -3258891.034 2  -2539398.427 5  24307566.262    24307566.806
 03  7 27 21 26 30.0000000  0 11 03 08 10 15 17 18 21 26 28 29 31
                     27344.943 1     21308.468 5  24005844.898
  24005845.420   -12064880.047 3  -9401202.933 6  22219053.956
  22219053.814   -12766380.446 2  -9947827.771 5  22587631.796
  22587631.018    -7663391.433 2  -5971471.592 5  22896412.158
  22896411.716    -4733564.072 2  -3688492.133 5  23333300.064
  23333299.152    -8851054.849 2  -6896923.144 5  23003858.319
  23003859.438   -10990870.016 3  -8564312.749 6  22371133.735
  22371135.250   -21357580.966 5 -16642269.173 8  20811529.106
  20811529.618   -10173887.988 2  -7927702.174 5  22857518.538
  22857519.893   -24163292.001 5 -18828536.717 7  20211846.348
  20211847.848    -3299010.430 2  -2570660.337 5  24299933.687    24299932.408
 03  7 27 21 27  0.0000000  0 11 03 08 10 15 17 18 21 26 28 29 31
                     41884.712 1     32638.190 5  24008612.174
  24008612.748   -11993188.032 3  -9345339.046 6  22232696.377
  22232696.201   -12665845.710 2  -9869489.056 5  22606761.941
  22606761.876    -7706672.115 2  -6005196.860 5  22888176.010
  22888175.770    -4634504.679 2  -3611302.993 5  23352150.612
  23352150.341    -8944637.670 2  -6969844.746 5  22986050.218
  22986051.291   -10942543.891 3  -8526656.023 6  22380329.983
  22380331.466   -21404015.481 5 -16678451.906 8  20802692.854
  20802693.373   -10249574.840 2  -7986678.930 5  22843115.849
  22843117.372   -24146063.985 5 -18815112.287 7  20215126.009
  20215126.165    -3338628.884 2  -2601531.879 5  24292392.322    24292393.464
 03  7 27 21 27 30.0000000  0 11 03 08 10 15 17 18 21 26 28 29 31
                     56987.424 1     44406.617 5  24011479.543
  24011481.990   -11921092.228 3  -9289160.522 6  22246415.866
  22246415.856   -12565012.452 2  -9790917.701 5  22625950.920
  22625950.104    -7749421.450 2  -6038508.061 5  22880041.056
  22880040.704    -4535164.802 2  -3533895.290 5  23371054.353
  23371053.581    -9037923.414 2  -7042534.951 5  22968298.500
  22968299.159   -10893691.910 3  -8488589.545 6  22389626.295
  22389627.752   -21450024.631 5 -16714303.173 8  20793937.636
  20793938.057   -10324790.165 2  -8045288.241 5  22828802.903
  22828803.884   -24128272.272 5 -18801248.619 7  20218510.367
  20218511.855    -3377759.682 2  -2632023.325 5  24284947.702    24284947.432
 03  7 27 21 28  0.0000000  0 11 03 08 10 15 17 18 21 26 28 29 31
                     72675.680 1     56630.117 5  24014471.398
  24014470.436   -11848571.312 3  -9232650.705 6  22260216.155
  22260216.127   -12463859.430 2  -9712097.196 5  22645199.100
  22645198.945    -7791614.536 2  -6071385.752 5  22872012.132
  22872011.555    -4435523.575 2  -3456252.772 5  23390015.318
  23390014.409    -9130885.878 2  -7114973.244 5  22950608.103
  22950609.553   -10844292.512 3  -8450096.516 6  22399026.814
  22399028.186   -21495583.958 5 -16749803.974 8  20785267.928
  20785268.448   -10399507.882 2  -8103509.831 5  22814584.800
  22814585.364   -24109894.088 5 -18786927.964 7  20222008.900
  20222009.090    -3416378.101 2  -2662115.567 5  24277598.303    24277597.786
 03  7 27 21 28 30.0000000  0 11 03 08 10 15 17 18 21 26 28 29 31
                     88942.035 1     69305.096 5  24017566.495
  24017567.902   -11775634.700 3  -9175816.987 6  22274095.419
  22274095.360   -12362395.699 2  -9633034.564 5  22664507.004
  22664507.144    -7833256.946 2  -6103834.356 5  22864087.881
  22864087.202    -4335591.111 2  -3378383.288 5  23409031.652
  23409030.881    -9223529.788 2  -7187163.292 5  22932978.714
  22932979.407   -10794354.185 3  -8411183.525 6  22408529.686
  22408531.513   -21540699.223 5 -16784958.737 8  20776682.896
  20776683.322   -10473732.179 2  -8161346.946 5  22800459.994
  22800460.828   -24090936.989 5 -18772156.199 7  20225615.068
  20225616.539    -3454489.769 2  -2691812.894 5  24270345.314    24270345.644
 03  7 27 21 29  0.0000000  0 11 03 08 10 15 17 18 21 26 28 29 31
                    105789.360 1     82432.754 5  24020772.555
  24020770.958   -11702280.622 3  -9118657.954 6  22288054.306
  22288054.320   -12260619.556 2  -9553728.515 5  22683874.639
  22683874.682    -7874343.276 2  -6135849.630 5  22856269.359
  22856268.847    -4235366.065 2  -3300285.822 5  23428103.917
  23428103.161    -9315849.026 2  -7259100.303 5  22915410.771
  22915412.022   -10743874.918 3  -8371849.018 6  22418135.546
  22418137.233   -21585365.316 5 -16819763.471 8  20768183.192
  20768183.659   -10547456.541 2  -8218794.507 5  22786430.746
  22786432.000   -24071397.576 5 -18756930.678 7  20229334.587
  20229334.816    -3492089.562 2  -2721111.558 5  24263191.194    24263191.746
 03  7 27 21 29 30.0000000  0 11 03 08 10 15 17 18 21 26 28 29 31
                    123216.770 1     96012.562 5  24024088.351
  24024089.893   -11628512.360 3  -9061176.197 6  22302091.971
  22302091.853   -12158534.585 2  -9474181.838 5  22703300.868
  22703300.442    -7914873.179 2  -6167431.340 6  22848556.582
  22848556.484    -4134852.554 2  -3221963.575 5  23447231.059
  23447230.191    -9407842.397 2  -7330783.445 5  22897904.696
  22897906.230   -10692857.501 3  -8332095.173 6  22427843.759
  22427845.179   -21629582.126 5 -16854218.113 8  20759768.954
  20759769.466   -10620679.356 2  -8275851.251 5  22772496.583
  22772498.015   -24051277.624 5 -18741252.787 7  20233161.879
  20233163.475    -3529177.022 2  -2750010.971 5  24256132.740    24256134.498
 03  7 27 21 30  0.0000000  0 11 03 08 10 15 17 18 21 26 28 29 31
                    141214.243 1    110036.602 5  24027513.175
  24027513.006   -11554341.083 3  -9003380.397 6  22316206.017
  22316206.321   -12056151.578 2  -9394402.947 5  22722784.036
  22722783.159    -7954854.291 2  -6198585.412 6  22840948.376
  22840948.180    -4034062.165 2  -3143425.613 5  23466410.996
  23466410.185    -9499516.337 2  -7402217.699 5  22880460.121
  22880461.283   -10641312.897 3  -8291930.533 6  22437652.322
  22437653.932   -21673357.449 5 -16888328.754 8  20751438.787
  20751439.221   -10693406.799 2  -8332521.961 5  22758657.273
  22758658.456   -24030586.677 5 -18725129.955 7  20237100.684
  20237100.840    -3565759.364 1  -2778516.695 5  24249172.489    24249171.986
 03  7 27 21 30 30.0000000  0 11 03 08 10 15 17 18 21 26 28 29 31
                    159772.601 1    124497.653 5  24031047.131
  24031044.982   -11479777.279 3  -8945278.735 6  22330395.218
  22330395.138   -11953481.040 2  -9314399.988 5  22742321.340
  22742321.060    -7994293.650 2  -6229317.372 6  22833443.446
  22833443.179    -3933005.954 2  -3064680.514 5  23485640.796
  23485640.430    -9590876.770 2  -7473407.632 5  22863074.518
  22863075.491   -10589250.767 3  -8251362.620 6  22447559.426
  22447560.798   -21716698.507 5 -16922101.011 8  20743191.322
  20743191.645   -10765644.535 2  -8388811.099 5  22744910.750
  22744912.204   -24009333.728 5 -18708569.220 7  20241143.772
  20241145.225    -3601843.657 1  -2806634.303 5  24242305.028    24242305.017
 03  7 27 21 31  0.0000000  0 11 03 08 10 15 17 18 21 26 28 29 31
                    178911.000 1    139410.730 5  24034686.856
  24034688.218   -11404803.654 3  -8886857.739 6  22344662.349
  22344662.167   -11850505.797 2  -9234159.602 5  22761917.252
  22761916.756    -8033170.133 2  -6259610.726 6  22826045.387
  22826044.936    -3831667.193 2  -2985715.251 5  23504925.518
  23504924.704    -9681901.805 2  -7544336.246 5  22845753.170
  22845754.354   -10536653.929 3  -8210378.064 6  22457568.167
  22457569.990   -21759584.588 5 -16955518.749 8  20735030.283
  20735030.784   -10837370.617 2  -8444701.550 5  22731261.974
  22731263.191   -23987499.841 5 -18691555.792 7  20245299.842
  20245299.983    -3637408.913 1  -2834347.372 5  24235536.804    24235537.159
 03  7 27 21 31 30.0000000  0 11 03 08 10 15 17 18 21 26 28 29 31
                    198628.966 1    154775.330 5  24038439.280
  24038438.211   -11329421.221 3  -8828118.193 6  22359007.233
  22359006.800   -11747227.122 2  -9153682.754 5  22781569.701
  22781569.740    -8071481.342 2  -6289463.619 6  22818755.070
  22818754.564    -3730047.526 2  -2906531.074 5  23524262.633
  23524262.229    -9772588.030 2  -7615000.869 5  22828496.057
  22828497.570   -10483522.954 3  -8168977.291 6  22467678.713
  22467680.478   -21802013.331 5 -16988580.122 8  20726956.432
  20726956.848   -10908580.927 2  -8500190.051 5  22717710.876
  22717712.195   -23965084.490 5 -18674089.288 7  20249564.154
  20249565.563    -3672452.987 1  -2861654.396 5  24228869.032    24228869.099
 03  7 27 21 32  0.0000000  0 11 03 08 10 15 17 18 21 26 28 29 31
                    218925.795 1    170590.979 5  24042301.740
  24042302.043   -11253633.045 3  -8769062.482 6  22373429.282
  22373428.934   -11643647.810 2  -9072971.599 5  22801281.095
  22801279.997    -8109226.333 2  -6318875.296 6  22811572.394
  22811572.002    -3628150.293 2  -2827130.632 5  23543653.046
  23543652.871    -9862933.638 2  -7685400.068 5  22811303.651
  22811305.386   -10429860.208 3  -8127162.169 6  22477890.594
  22477892.355   -21843984.280 5 -17021284.752 8  20718969.564
  20718970.108   -10979273.747 2  -8555275.379 5  22704258.488
  22704259.865   -23942089.304 5 -18656170.963 7  20253941.207
  20253941.417    -3706975.087 1  -2888554.685 5  24222299.663    24222298.025
 03  7 27 21 32 30.0000000  0 11 03 08 10 15 17 18 21 26 28 29 31
                    239786.700 1    186846.265 5  24046271.236
  24046271.201   -11177455.312 3  -8709703.217 6  22387925.357
  22387925.151   -11539784.231 2  -8992038.931 5  22821044.965
  22821044.477    -8146417.913 2  -6347855.753 6  22804494.998
  22804494.674    -3525992.531 2  -2747527.179 5  23563093.399
  23563092.592    -9952950.392 2  -7755542.976 5  22794174.164
  22794175.510   -10375681.432 3  -8084944.968 6  22488200.439
  22488201.942   -21885510.343 5 -17053642.726 8  20711067.415
  20711067.953   -11049460.469 2  -8609966.345 5  22690902.574
  22690903.793   -23918528.807 5 -18637812.139 7  20258423.414
  20258424.803    -3740988.008 1  -2915058.277 5  24215827.460    24215827.337
 03  7 27 21 33  0.0000000  0 12 03 08 09 10 15 17 18 21 26 28 29 31
                    261208.406 2    203538.620 5  24050346.820
  24050348.056   -11100892.770 3  -8650044.092 6  22402494.615
  22402494.558            .20811         -.33915  24963682.732
  24963681.164   -11435640.449 2  -8910887.938 5  22840863.697
  22840862.472    -8183057.050 2  -6376405.727 6  22797522.635
  22797522.511    -3423579.258 2  -2667724.646 5  23582581.969
  23582580.774   -10042638.279 2  -7825429.606 5  22777107.143
  22777108.367   -10320991.394 3  -8042329.433 6  22498607.751
  22498609.165   -21926592.623 5 -17085654.856 8  20703249.818
  20703250.182   -11119140.711 2  -8664262.652 5  22677643.032
  22677644.473   -23894405.985 5 -18619015.134 7  20263015.011
  20263015.213    -3774492.722 1  -2941165.787 5  24209452.863    24209451.630
 03  7 27 21 33 30.0000000  0 12 03 08 09 10 15 17 18 21 26 28 29 31
                    283198.049 1    220673.418 5  24054532.258
  24054531.873   -11023939.096 3  -8590080.189 6  22417138.576
  22417138.415     -108067.028 1    -84208.618 5  24943118.759
  24943117.796   -11331210.698 2  -8829514.098 5  22860734.863
  22860735.354    -8219134.100 2  -6404517.734 6  22790657.698
  22790657.375    -3320904.827 2  -2587718.596 5  23602120.032
  23602118.971   -10131986.607 2  -7895051.649 5  22760104.954
  22760106.125   -10265783.406 3  -7999310.365 6  22509113.601
  22509115.109   -21967221.798 5 -17117313.963 8  20695518.284
  20695518.801   -11188303.477 2  -8718155.738 5  22664481.585
  22664482.550   -23869713.164 5 -18599773.979 7  20267712.688
  20267714.080    -3807479.408 1  -2966869.686 5  24203171.600    24203174.601
 03  7 27 21 34  0.0000000  0 12 03 08 09 10 15 17 18 21 26 28 29 31
                    305757.010 1    238251.834 5  24058825.779
  24058824.900   -10946594.877 3  -8529811.962 6  22431856.793
  22431856.599     -216059.330 1   -168358.491 5  24922568.324
  24922567.048   -11226495.530 2  -8747917.810 5  22880662.408
  22880661.608    -8254646.273 2  -6432189.589 6  22783900.018
  22783899.603    -3217970.290 2  -2507509.861 5  23621707.268
  23621706.471   -10220991.296 2  -7964405.899 5  22743167.932
  22743168.848   -10210057.505 3  -7955887.586 6  22519717.776
  22519719.208   -22007395.035 5 -17148617.776 8  20687873.695
  20687873.965   -11256944.502 2  -8771642.232 5  22651419.883
  22651420.499   -23844449.629 5 -18580088.122 7  20272521.469
  20272521.632    -3839945.273 1  -2992167.621 5  24196995.057    24196997.387
 03  7 27 21 34 30.0000000  0 12 03 08 09 10 15 17 18 21 26 28 29 31
                    328883.378 1    256272.269 5  24063225.045
  24063226.485   -10868863.006 3  -8469241.682 6  22446648.334
  22446648.287     -323975.821 1   -252449.304 5  24902032.708
  24902031.953   -11121497.721 2  -8666101.319 5  22900641.528
  22900641.903    -8289592.738 2  -6459420.646 6  22777249.882
  22777249.379    -3114779.337 2  -2427101.355 5  23641344.801
  23641342.892   -10309650.942 2  -8033491.387 5  22726296.658
  22726297.325   -10153816.207 3  -7912063.161 6  22530420.162
  22530421.367   -22047111.819 5 -17179565.912 8  20680315.701
  20680316.146   -11325062.086 2  -8824720.855 5  22638457.400
  22638458.442   -23818616.655 5 -18559958.553 7  20277436.187
  20277437.420    -3871889.893 1  -3017059.452 5  24190913.714    24190918.851
 03  7 27 21 35  0.0000000  0 12 03 08 09 10 15 17 18 21 26 28 29 31
                    352576.287 1    274734.177 5  24067734.925
  24067734.776   -10790745.906 3  -8408371.223 6  22461513.822
  22461513.535     -431814.423 1   -336479.334 5  24881511.303
  24881511.455   -11016219.560 2  -8584066.358 5  22920676.383
  22920676.190    -8323972.331 2  -6486209.966 6  22770707.581
  22770707.089    -3011334.619 2  -2346495.088 5  23661029.171
  23661028.352   -10397962.797 3  -8102305.807 5  22709491.419
  22709492.583   -10097061.713 3  -7867838.840 5  22541220.082
  22541221.464   -22086371.099 5 -17210157.555 8  20672844.979
  20672845.414   -11392653.516 2  -8877389.487 5  22625594.923
  22625596.099   -23792215.188 5 -18539386.010 7  20282461.351
  20282461.517    -3903311.914 1  -3041543.992 5  24184927.928    24184936.208
 03  7 27 21 35 30.0000000  0 12 03 08 09 10 15 17 18 21 26 28 29 31
                    376832.154 1    293634.836 5  24072350.254
  24072351.057   -10712248.752 3  -8347204.654 6  22476451.264
  22476451.038     -539576.329 1   -420449.530 4  24861005.128
  24861003.772   -10910666.363 2  -8501817.100 5  22940761.610
  22940761.925    -8357786.854 2  -6512558.986 6  22764272.818
  22764272.981    -2907642.012 2  -2265695.656 5  23680761.865
  23680759.889   -10485927.620 3  -8170849.784 5  22692751.845
  22692753.325   -10039798.908 3  -7823218.460 5  22552116.752
  22552118.138   -22125174.845 5 -17240394.237 8  20665460.804
  20665461.222   -11459719.542 2  -8929648.713 5  22612832.853
  22612833.467   -23765248.692 5 -18518373.144 7  20287591.771
  20287593.033    -3934213.368 1  -3065623.031 5  24179061.262    24179056.079
 03  7 27 21 36  0.0000000  0 12 03 08 09 10 15 17 18 21 26 28 29 31
                    401655.756 1    312977.910 5  24077073.750
  24077073.890   -10633367.987 3  -8285739.155 6  22491461.701
  22491461.614     -647254.158 1   -504354.187 4  24840514.764
  24840513.523   -10804834.816 2  -8419350.958 5  22960901.720
  22960901.124    -8391029.153 2  -6538462.095 6  22757947.373
  22757946.887    -2803698.518 2  -2184700.761 5  23700540.784
  23700539.699   -10573537.545 3  -8239117.255 5  22676080.331
  22676081.569    -9982024.074 3  -7778199.105 5  22563110.765
  22563112.409   -22163516.103 5 -17270270.542 8  20658164.834
  20658165.134   -11526251.631 2  -8981491.891 5  22600172.202
  22600173.402   -23737712.436 5 -18496916.321 7  20292832.889
  20292833.081    -3964587.046 1  -3089290.778 5  24173275.566    24173277.521
 03  7 27 21 36 30.0000000  0 12 03 08 09 10 15 17 18 21 26 28 29 31
                    427046.057 1    332762.557 5  24081905.614
  24081905.634   -10554105.687 3  -8223976.327 6  22506545.261
  22506544.730     -754845.796 1   -588191.718 3  24820039.192
  24820041.214   -10698726.771 2  -8336669.381 5  22981092.473
  22981092.486    -8423698.066 2  -6563918.403 6  22751730.770
  22751730.428    -2699506.518 2  -2103512.267 5  23720368.637
  23720367.309   -10660789.838 3  -8307106.089 5  22659476.821
  22659478.120    -9923739.034 3  -7732782.215 6  22574202.214
  22574203.496   -22201393.511 5 -17299785.411 8  20650956.854
  20650957.316   -11592247.185 2  -9032916.991 5  22587613.774
  22587614.709   -23709607.101 5 -18475016.061 7  20298180.073
  20298181.327    -3994431.709 1  -3112546.315 5  24167598.809    24167597.201
 03  7 27 21 37  0.0000000  0 12 03 08 09 10 15 17 18 21 26 28 29 31
                    452985.235 1    352974.897 5  24086840.979
  24086841.969   -10474480.966 3  -8161931.112 6  22521696.692
  22521696.591     -862366.307 1   -671973.750 4  24799577.948
  24799578.385   -10592361.321 2  -8253787.230 5  23001334.177
  23001333.381    -8455809.249 3  -6588940.120 6  22745620.155
  22745619.714    -2595086.027 2  -2022145.718 5  23740239.284
  23740238.128   -10747699.033 3  -8374827.556 5  22642938.759
  22642939.931    -9864962.536 3  -7686982.351 5  22585387.136
  22585388.455   -22238823.208 5 -17328951.403 8  20643834.512
  20643834.684   -11657720.833 2  -9083935.406 5  22575154.493
  22575155.320   -23680950.289 5 -18452686.065 7  20303634.493
  20303634.497    -4023763.208 1  -3135402.079 5  24162016.035    24162016.599
 03  7 27 21 37 30.0000000  0 12 03 08 09 10 15 17 18 21 26 28 29 31
                    479497.700 1    373634.040 5  24091888.137
  24091887.441   -10394470.992 3  -8099585.681 6  22536922.437
  22536921.898     -969789.114 1   -755679.744 4  24779136.401
  24779136.858   -10485715.583 2  -8170686.696 5  23021627.317
  23021627.421    -8487336.283 3  -6613506.669 6  22739620.905
  22739620.176    -2490414.422 2  -1940583.511 5  23760157.925
  23760156.338   -10834237.649 3  -8442260.240 5  22626471.142
  22626472.113    -9805671.697 3  -7640781.721 5  22596669.921
  22596671.053   -22275778.613 5 -17357747.817 8  20636801.559
  20636802.393   -11722644.637 2  -9134525.399 5  22562800.002
  22562801.090   -23651717.396 5 -18429907.168 7  20309196.043
  20309197.294    -4052555.236 2  -3157837.596 5  24156537.902    24156537.146
 03  7 27 21 38  0.0000000  0 12 03 08 09 10 15 17 18 21 26 28 29 31
                    506573.587 2    394732.221 5  24097038.937
  24097039.687   -10314086.747 3  -8036948.652 6  22552219.126
  22552218.954    -1077120.812 1   -839314.753 4  24758712.160
  24758712.319   -10378800.547 2  -8087376.342 5  23041973.454
  23041972.570    -8518286.337 3  -6637623.543 6  22733731.282
  22733730.600    -2385503.278 2  -1858834.607 5  23780121.402
  23780120.627   -10920412.015 3  -8509409.106 5  22610072.764
  22610074.071    -9745876.850 3  -7594188.357 5  22608048.473
  22608050.087   -22312267.614 5 -17386180.827 8  20629858.505
  20629858.731   -11787024.802 2  -9184691.765 5  22550549.011
  22550549.626   -23621918.353 5 -18406687.120 7  20314867.688
  20314867.805    -4080815.077 2  -3179858.402 5  24151159.578    24151159.985
 03  7 27 21 38 30.0000000  0 12 03 08 09 10 15 17 18 21 26 28 29 31
                    534213.721 1    416269.897 5  24102297.642
  24102299.873   -10233328.120 3  -7974019.910 6  22567586.965
  22567587.008    -1184357.466 1   -922875.651 5  24738306.034
  24738306.429   -10271616.316 2  -8003856.204 5  23062369.375
  23062369.412    -8548656.438 3  -6661288.552 6  22727951.869
  22727951.273    -2280352.807 2  -1776899.186 5  23800131.177
  23800130.198   -11006217.391 3  -8576270.431 5  22593744.640
  22593745.549    -9685578.029 3  -7547202.292 5  22619522.921
  22619524.461   -22348286.738 5 -17414247.690 8  20623003.682
  20623004.519   -11850856.680 2  -9234430.880 5  22538401.981
  22538402.788   -23591551.847 5 -18383024.900 7  20320645.152
  20320646.355    -4108539.721 2  -3201462.247 5  24145884.375    24145884.538
 03  7 27 21 39  0.0000000  0 12 03 08 09 10 15 17 18 21 26 28 29 31
                    562405.236 1    438237.341 5  24107665.233
  24107664.177   -10152209.787 3  -7910810.859 6  22583023.327
  22583023.401    -1291509.693 1  -1006370.915 5  24717915.986
  24717915.378   -10164177.233 2  -7920137.436 5  23082814.749
  23082814.130    -8578457.830 3  -6684510.444 6  22722280.838
  22722280.203    -2174978.354 2  -1694789.213 5  23820183.069
  23820182.423   -11091663.776 3  -8642852.030 5  22577484.505
  22577485.491    -9624789.777 3  -7499834.835 5  22631090.634
  22631091.920   -22383847.229 5 -17441957.142 8  20616237.438
  20616237.537   -11914150.330 2  -9283750.601 5  22526357.411
  22526358.678   -23560630.928 5 -18358930.666 7  20326530.367
  20326530.447    -4135740.088 2  -3222657.540 5  24140708.183    24140708.494
 03  7 27 21 39 30.0000000  0 12 03 08 09 10 15 17 18 21 26 28 29 31
                    591148.997 1    460635.115 5  24113132.545
  24113133.469   -10070732.084 3  -7847321.784 6  22598528.147
  22598527.890    -1398573.331 1  -1089797.080 5  24697541.619
  24697542.676   -10056483.547 2  -7836220.266 5  23103308.334
  23103307.297    -8607687.283 2  -6707286.625 6  22716718.553
  22716717.987    -2069380.639 2  -1612505.269 5  23840278.054
  23840276.231   -11176747.026 3  -8709150.681 5  22561293.614
  22561294.618    -9563511.974 3  -7452085.896 5  22642751.374
  22642753.092   -22418946.367 5 -17469307.182 8  20609557.746
  20609558.471   -11976901.352 2  -9332647.521 5  22514416.362
  22514417.507   -23529154.461 5 -18334403.554 7  20332519.022
  20332520.140    -4162412.686 2  -3243441.234 5  24135632.594    24135632.602
 03  7 27 21 40  0.0000000  0 12 03 08 09 10 15 17 18 21 26 28 29 31
                    620452.878 1    483469.401 5  24118709.529
  24118709.912    -9988888.075 3  -7783547.232 6  22614102.493
  22614102.193    -1505537.782 1  -1173145.958 5  24677188.816
  24677187.336    -9948528.791 2  -7752099.678 5  23123851.283
  23123851.014    -8636334.893 3  -6729609.413 6  22711266.980
  22711266.819    -1963553.725 2  -1530042.728 5  23860416.074
  23860414.966   -11261455.806 3  -8775157.479 5  22545173.997
  22545174.990    -9501737.489 3  -7403949.937 5  22654506.734
  22654508.160   -22453574.059 5 -17496289.834 8  20602968.992
  20602969.131   -12039098.501 2  -9381112.830 5  22502580.564
  22502581.832   -23497114.438 5 -18309437.290 7  20338617.276
  20338617.209    -4188547.687 1  -3263805.833 5  24130658.039    24130659.397
 03  7 27 21 40 30.0000000  0 12 03 08 09 10 15 17 18 21 26 28 29 31
                    650316.894 1    506740.098 5  24124394.062
  24124392.564    -9906678.894 3  -7719488.139 5  22629746.327
  22629745.938    -1612399.587 1  -1256414.787 5  24656851.615
  24656851.265    -9840313.688 2  -7667776.220 5  23144444.019
  23144442.912    -8664398.264 3  -6751476.932 6  22705926.727
  22705926.484    -1857498.797 2  -1447402.536 5  23880597.151
  23880596.652   -11345786.438 3  -8840869.663 5  22529126.652
  22529127.099    -9439467.589 3  -7355427.927 5  22666356.256
  22666357.956   -22487727.767 5 -17522903.132 8  20596469.105
  20596469.809   -12100737.798 2  -9429143.471 5  22490851.194
  22490852.352   -23464510.548 5 -18284031.648 7  20344820.287
  20344821.463    -4214143.706 2  -3283750.741 5  24125788.491    24125788.201
 03  7 27 21 41  0.0000000  0 12 03 08 09 10 15 17 18 21 26 28 29 31
                    680734.322 1    530441.919 5  24130180.110
  24130181.931    -9824112.430 3  -7655150.622 5  22645457.897
  22645458.039    -1719162.866 1  -1339606.844 5  24636536.023
  24636534.382    -9731846.094 2  -7583256.030 5  23165084.703
  23165084.311    -8691881.933 3  -6772892.751 6  22700696.614
  22700696.734    -1751224.380 1  -1364591.302 5  23900820.662
  23900819.228   -11429741.912 3  -8906289.545 5  22513150.314
  22513151.370    -9376709.823 3  -7306525.773 5  22678298.684
  22678300.105   -22521412.006 5 -17549150.565 8  20590059.859
  20590059.806   -12161822.583 2  -9476742.001 5  22479227.217
  22479228.211   -23431349.163 5 -18258191.604 7  20351131.807
  20351132.057    -4239204.811 1  -3303278.912 5  24121019.813    24121019.362
 03  7 27 21 41 30.0000000  0 12 03 08 09 10 15 17 18 21 26 28 29 31
                    711711.905 1    554580.290 5  24136076.192
  24136074.806    -9741183.336 3  -7590530.571 5  22661239.037
  22661238.809    -1825818.465 1  -1422715.043 5  24616240.611
  24616238.398    -9623120.754 2  -7498534.971 5  23185774.181
  23185773.625    -8718777.218 3  -6793850.099 6  22695578.647
  22695578.492    -1644725.670 1  -1281605.264 5  23921086.127
  23921086.287   -11513312.603 3  -8971409.552 5  22497247.354
  22497248.597    -9313458.549 3  -7257239.059 5  22690334.896
  22690336.493   -22554618.398 5 -17575025.637 8  20583740.060
  20583740.895   -12222342.945 2  -9523900.739 5  22467710.718
  22467711.864   -23397623.709 5 -18231912.018 7  20357548.477
  20357549.715    -4263722.391 1  -3322383.542 5  24116353.953    24116353.212
 03  7 27 21 42  0.0000000  0 12 03 08 09 10 15 17 18 21 26 28 29 31
                    743229.786 1    579139.856 5  24142072.987
  24142073.198    -9657912.398 3  -7525644.152 5  22677084.851
  22677084.755    -1932382.698 1  -1505752.081 5  24595959.852
  24595960.398    -9514158.627 2  -7413629.456 5  23206509.121
  23206508.707    -8745102.052 3  -6814362.975 6  22690569.199
  22690568.923    -1538023.900 1  -1198461.035 5  23941391.346
  23941390.455   -11596514.692 3  -9036242.368 5  22481414.632
  22481415.750    -9249734.663 3  -7207584.088 5  22702461.328
  22702462.426   -22587364.389 5 -17600541.970 8  20577509.545
  20577509.475   -12282315.138 2  -9570632.316 5  22456298.193
  22456299.056   -23363353.793 5 -18205208.213 7  20364070.916
  20364070.961    -4287713.979 1  -3341078.277 5  24111787.841    24111789.248
 03  7 27 21 42 30.0000000  0 12 03 08 09 10 15 17 18 21 26 28 29 31
                    775291.566 1    604122.988 5  24148173.496
  24148174.310    -9574296.734 3  -7460489.105 5  22692996.548
  22692996.255    -2038848.844 1  -1588712.741 5  24575702.263
  24575700.859    -9404956.730 2  -7328537.095 5  23227289.573
  23227289.128    -8770850.039 3  -6834426.331 6  22685669.779
  22685669.298    -1431116.610 1  -1115156.642 5  23961735.109
  23961734.299   -11679340.439 3  -9100781.883 5  22465653.324
  22465654.517    -9185534.962 3  -7157558.345 5  22714678.019
  22714679.412   -22619643.858 5 -17625694.755 8  20571366.078
  20571366.907   -12341731.636 2  -9616930.872 5  22444991.477
  22444992.470   -23328535.113 5 -18178076.801 7  20370695.646
  20370696.794    -4311173.611 1  -3359358.561 5  24107323.376    24107324.171
 03  7 27 21 43  0.0000000  0 12 03 08 09 10 15 17 18 21 26 28 29 31
                    807907.167 1    629537.646 5  24154381.832
  24154380.625    -9490327.420 3  -7395058.487 5  22708975.476
  22708975.097    -2145203.500 1  -1671586.526 5  24555462.450
  24555463.093    -9295506.093 2  -7243250.882 5  23248117.400
  23248116.714    -8796009.011 3  -6854030.716 6  22680882.075
  22680881.633    -1323995.590 1  -1031685.764 5  23982118.799
  23982118.832   -11761776.679 3  -9165017.886 5  22449966.087
  22449967.293    -9120850.348 3  -7107154.736 5  22726987.057
  22726988.502   -22651444.612 5 -17650474.516 8  20565315.403
  20565315.405   -12400579.211 2  -9662786.130 5  22433793.268
  22433794.185   -23293157.552 5 -18150509.912 7  20377428.852
  20377428.881    -4334089.232 1  -3377215.059 5  24102964.195    24102963.129
 03  7 27 21 43 30.0000000  0 12 03 08 09 10 15 17 18 21 26 28 29 31
                    841054.869 1    655366.988 5  24160689.008
  24160689.500    -9406027.798 3  -7329370.454 6  22725017.082
  22725017.066    -2251466.574 1  -1754389.144 5  24535242.634
  24535240.992    -9185830.031 2  -7157788.997 5  23268988.201
  23268987.514    -8820599.184 3  -6873191.910 6  22676202.650
  22676202.039    -1216684.868 1   -948067.300 5  24002541.287
  24002539.868   -11843842.069 3  -9228964.958 6  22434349.675
  22434350.651    -9055704.328 3  -7056391.590 5  22739383.926
  22739385.657   -22682787.059 5 -17674897.227 8  20559350.310
  20559351.107   -12458876.367 2  -9708212.502 5  22422699.766
  22422700.989   -23257243.085 5 -18122524.602 7  20384262.086
  20384263.151    -4356480.752 2  -3394663.151 5  24098702.112    24098702.768
 03  7 27 21 44  0.0000000  0 12 03 08 09 10 15 17 18 21 26 28 29 31
                    874761.800 1    681632.124 5  24167102.189
  24167102.746    -9321371.503 2  -7263404.476 6  22741126.804
  22741126.367    -2357607.115 1  -1837096.193 5  24515044.679
  24515043.587    -9075902.178 2  -7072130.943 5  23289905.502
  23289905.764    -8844591.046 3  -6891886.909 6  22671637.177
  22671636.600    -1109158.109 1   -864280.372 5  24023002.267
  24023001.705   -11925505.534 3  -9292598.838 5  22418809.557
  22418810.801    -8990070.408 3  -7005248.256 5  22751873.704
  22751874.905   -22713641.241 5 -17698939.438 8  20553479.722
  20553479.711   -12516592.397 2  -9753186.054 5  22411716.842
  22411717.959   -23220764.271 5 -18094099.558 7  20391204.867
  20391204.942    -4378318.191 1  -3411679.239 5  24094547.169    24094546.647
 03  7 27 21 44 30.0000000  0 12 03 08 09 10 15 17 18 21 26 28 29 31
                    909029.079 1    708334.018 5  24173625.753
  24173621.800    -9236358.734 2  -7197160.764 6  22757304.326
  22757303.468    -2463620.639 1  -1919704.036 5  24494869.947
  24494870.162    -8965722.466 2  -6986276.608 5  23310873.647
  23310871.625    -8867981.343 3  -6910113.130 6  22667186.077
  22667186.131    -1001415.786 1   -780325.369 5  24043504.816
  24043503.982   -12006762.684 3  -9355916.160 5  22403346.713
  22403348.174    -8923948.742 2  -6953724.873 5  22764456.094
  22764457.635   -22744004.081 5 -17722598.813 8  20547701.000
  20547701.827   -12573722.928 2  -9797703.427 5  22400845.152
  22400846.444   -23183719.810 5 -18065233.751 7  20398253.220
  20398254.266    -4399599.046 1  -3428261.697 5  24090497.270    24090497.228
 03  7 27 21 45  0.0000000  0 12 03 08 09 10 15 17 18 21 26 28 29 31
                    943843.890 1    735462.437 5  24180248.117
  24180248.666    -9151002.927 2  -7130649.746 5  22773546.738
  22773546.698    -2569517.133 1  -2002220.717 5  24474718.158
  24474718.211    -8855304.369 2  -6900236.555 5  23331884.150
  23331884.323    -8890780.515 3  -6927878.752 6  22662847.764
  22662847.257     -893472.020 1   -696213.354 5  24064045.698
  24064045.687   -12087622.205 3  -9418923.558 5  22387959.610
  22387961.217    -8857352.268 2  -6901831.506 5  22777129.235
  22777130.145   -22773885.961 5 -17745883.413 8  20542015.628
  20542015.545   -12630276.873 2  -9841771.501 5  22390083.504
  22390084.555   -23146122.010 5 -18035936.783 7  20405408.831
  20405408.926    -4420333.815 1  -3444418.728 5  24086551.065    24086551.685
 03  7 27 21 45 30.0000000  0 11 08 09 10 15 17 18 21 26 28 29 31
                  -9065322.098 2  -7063885.508 5  22789851.226
  22789851.262    -2675310.318 1  -2084656.889 5  24454586.068
  24454586.050    -8744665.806 2  -6814024.678 5  23352939.115
  23352938.153    -8913003.470 3  -6945195.392 6  22658618.909
  22658618.698     -785345.561 1   -611959.104 5  24084621.911
  24084621.417   -12168097.763 3  -9481631.804 5  22372645.764
  22372647.017    -8790299.395 3  -6849582.507 5  22789888.824
  22789890.147   -22803301.631 5 -17768804.730 8  20536417.086
  20536417.949   -12686267.831 2  -9885400.865 5  22379428.859
  22379429.844   -23107987.580 5 -18006221.651 7  20412664.565
  20412665.567    -4440537.041 1  -3460161.492 5  24082706.881    24082706.499
 03  7 27 21 46  0.0000000  0 11 08 09 10 15 17 18 21 26 28 29 31
                  -8979301.684 2  -6996856.663 5  22806220.373
  22806220.286    -2780981.634 1  -2166998.074 5  24434478.432
  24434477.287    -8633792.347 2  -6727629.758 5  23374036.621
  23374037.003    -8934632.307 3  -6962049.060 6  22654502.964
  22654502.786     -677022.083 1   -527551.309 5  24105235.822
  24105234.980   -12248169.720 3  -9544025.526 5  22357408.548
  22357409.882    -8722775.147 2  -6796966.192 5  22802738.174
  22802739.429   -22832233.390 5 -17791349.060 8  20530912.615
  20530912.605   -12741676.462 2  -9928576.437 5  22368884.774
  22368885.825   -23069300.876 5 -17976076.226 7  20420027.625
  20420027.469    -4460190.940 1  -3475476.114 5  24078966.195    24078966.628
 03  7 27 21 46 30.0000000  0 11 08 09 10 15 17 18 21 26 28 29 31
                  -8892948.750 2  -6929568.651 5  22822652.989
  22822652.668    -2886534.208 1  -2249246.675 5  24414392.749
  24414392.317    -8522691.415 2  -6641057.635 5  23395179.588
  23395178.594    -8955671.212 3  -6978443.054 6  22650499.466
  22650498.978     -568509.278 1   -442995.907 5  24125884.981
  24125883.824   -12327841.128 3  -9606107.144 6  22342247.623
  22342249.014    -8654787.246 2  -6743988.579 5  22815675.945
  22815677.221   -22860685.116 5 -17813519.304 8  20525497.585
  20525498.378   -12796505.803 2  -9971300.614 6  22358451.349
  22358451.860   -23030067.695 5 -17945504.963 7  20427492.378
  20427493.351    -4479299.932 1  -3490366.143 5  24075330.947    24075329.870
 03  7 27 21 47  0.0000000  0 11 08 09 10 15 17 18 21 26 28 29 31
                  -8806281.630 2  -6862035.814 5  22839145.021
  22839144.454    -2991982.178 1  -2331413.893 5  24394326.060
  24394325.547    -8411380.692 2  -6554322.037 5  23416360.376
  23416360.266    -8976135.314 3  -6994389.102 6  22646605.349
  22646604.714     -459825.491 1   -358307.221 5  24146566.655
  24146565.449   -12407125.668 3  -9667887.329 6  22327160.401
  22327161.700    -8586353.428 3  -6690663.507 5  22828698.510
  22828699.703   -22888671.609 5 -17835326.962 8  20520172.819
  20520172.788   -12850769.622 2 -10013584.105 6  22348125.184
  22348126.086   -22990305.107 5 -17914521.171 7  20435059.973
  20435060.033    -4497878.825 1  -3504842.987 5  24071794.164    24071794.590
 03  7 27 21 47 30.0000000  0 11 08 09 10 15 17 18 21 26 28 29 31
                  -8719289.858 2  -6794250.049 5  22855699.424
  22855698.544    -3097310.984 1  -2413488.246 5  24374282.623
  24374282.007    -8299850.122 2  -6467415.106 5  23437584.604
  23437584.296    -8996011.161 3  -7009876.757 6  22642823.073
  22642822.961     -350961.040 1   -273477.788 5  24167282.617
  24167282.083   -12486008.225 3  -9729354.296 6  22312149.588
  22312150.693    -8517463.467 2  -6636983.011 5  22841807.506
  22841808.969   -22916179.469 5 -17856761.636 8  20514937.302
  20514938.288   -12904453.035 2 -10055415.309 6  22337909.532
  22337910.381   -22950001.416 5 -17883115.685 7  20442728.421
  20442729.433    -4515914.541 1  -3518896.652 5  24068362.626    24068363.033
 03  7 27 21 48  0.0000000  0 11 08 09 10 15 17 18 21 26 28 29 31
                  -8631972.498 2  -6726210.593 5  22872314.957
  22872314.578    -3202515.533 1  -2495465.795 5  24354263.336
  24354262.323    -8188098.775 2  -6380336.181 5  23458849.634
  23458849.408    -9015294.700 3  -7024902.878 6  22639153.382
  22639153.214     -241915.696 1   -188507.371 5  24188033.566
  24188033.108   -12564483.057 3  -9790503.593 6  22297216.280
  22297217.209    -8448116.341 2  -6582946.297 5  22855003.940
  22855005.642   -22943204.729 5 -17877820.316 8  20509795.555
  20509795.436   -12957550.947 2 -10096790.375 6  22327805.310
  22327806.208   -22909154.620 5 -17851286.963 7  20450502.344
  20450502.385    -4533403.295 1  -3532524.256 5  24065035.324    24065034.341
 03  7 27 21 48 30.0000000  0 11 08 09 10 15 17 18 21 26 28 29 31
                  -8544324.219 2  -6657913.251 5  22888994.124
  22888993.849    -3307586.240 1  -2577339.055 5  24334269.029
  24334267.916    -8076121.229 2  -6293080.961 5  23480158.915
  23480158.111    -9033977.696 3  -7039461.097 6  22635598.150
  22635597.904     -132684.395 1   -103392.104 5  24208819.246
  24208818.286   -12642540.107 3  -9851327.291 6  22282362.451
  22282363.718    -8378306.641 2  -6528549.114 5  22868288.382
  22868289.721   -22969738.681 5 -17898496.139 8  20504745.312
  20504746.259   -13010053.600 2 -10137701.638 6  22317814.582
  22317815.488   -22867758.428 5 -17819030.159 7  20458378.747
  20458379.757    -4550336.398 1  -3545718.806 5  24061811.317    24061813.861
 03  7 27 21 49  0.0000000  0 11 08 09 10 15 17 18 21 26 28 29 31
                  -8456350.810 2  -6589362.613 5  22905735.263
  22905734.385    -3412524.848 2  -2659109.347 5  24314299.369
  24314298.958    -7963923.291 2  -6205653.994 5  23501508.459
  23501507.977    -9052062.665 3  -7053553.225 6  22632156.773
  22632155.832      -23273.234 1    -18136.667 5  24229639.657
  24229638.439   -12720180.854 3  -9911826.586 6  22267588.113
  22267589.354    -8308040.126 2  -6473795.972 5  22881659.340
  22881660.920   -22995783.990 5 -17918791.208 8  20499790.002
  20499789.944   -13061962.154 2 -10178149.928 6  22307936.794
  22307937.711   -22825817.278 5 -17786348.722 7  20466360.927
  20466360.856    -4566716.632 1  -3558482.562 5  24058696.197    24058694.860
 03  7 27 21 49 30.0000000  0 11 08 09 10 15 17 18 21 26 28 29 31
                  -8368064.349 2  -6520568.049 5  22922535.555
  22922534.595    -3517339.265 2  -2740782.821 5  24294353.727
  24294354.041    -7851516.797 2  -6118064.535 5  23522899.724
  23522898.305    -9069559.156 3  -7067186.913 6  22628827.357
  22628826.864       86304.950 1     67248.911 5  24250492.213
  24250490.930   -12797412.826 3  -9972007.326 6  22252891.313
  22252892.472    -8237329.192 2  -6418696.558 5  22895115.449
  22895116.706   -23021349.587 5 -17938712.459 8  20494924.150
  20494925.062   -13113284.466 2 -10218141.440 5  22298170.515
  22298171.213   -22783342.134 5 -17753251.203 7  20474442.580
  20474443.650    -4582553.177 1  -3570822.688 5  24055681.217    24055682.421
 03  7 27 21 50  0.0000000  0 11 08 09 10 15 17 18 21 26 28 29 31
                  -8279462.150 2  -6451527.444 5  22939396.221
  22939395.161    -3622023.081 2  -2822354.554 5  24274433.115
  24274433.186    -7738899.357 1  -6030310.733 5  23544329.523
  23544329.402    -9086461.393 3  -7080357.441 6  22625610.765
  22625610.783      196052.439 1    152766.360 5  24271375.968
  24271374.553   -12874228.792 3 -10031863.894 6  22238273.697
  22238274.623    -8166170.916 2  -6363248.564 5  22908656.477
  22908657.926   -23046429.605 5 -17958255.267 8  20490152.535
  20490152.356   -13164014.029 2 -10257671.033 5  22288516.968
  22288517.903   -22740329.450 5 -17719734.828 7  20482628.695
  20482628.705    -4597840.526 1  -3582734.860 5  24052772.267    24052771.874
 03  7 27 21 50 30.0000000  0 11 08 09 10 15 17 18 21 26 28 29 31
                  -8190531.261 2  -6382230.709 5  22956318.940
  22956318.721    -3726559.000 2  -2903811.008 5  24254540.320
  24254540.905    -7626058.021 2  -5942382.444 5  23565803.049
  23565802.482    -9102753.641 3  -7093052.707 6  22622510.615
  22622510.636      305981.782 1    238425.626 5  24292295.292
  24292294.379   -12950610.980 3 -10091382.408 6  22223738.746
  22223739.913    -8094552.657 2  -6307442.147 5  22922284.972
  22922286.061   -23071008.283 5 -17977407.444 8  20485474.219
  20485475.194   -13214133.186 3 -10296725.018 6  22278979.839
  22278980.743   -22696765.109 5 -17685788.609 7  20490917.722
  20490918.746    -4612562.763 2  -3594206.677 5  24049971.550    24049971.449
 03  7 27 21 51  0.0000000  0 12 08 09 10 15 17 18 21 23 26 28 29 31
                  -8101301.995 2  -6312701.411 5  22973298.468
  22973298.050    -3830973.356 2  -2985172.751 5  24234671.151
  24234670.940    -7513022.951 2  -5854303.222 5  23587312.913
  23587312.544    -9118463.195 3  -7105293.946 6  22619521.217
  22619521.073      416062.248 1    324202.563 5  24313241.483
  24313240.945   -13026585.859 3 -10150583.645 6  22209281.164
  22209282.206    -8022504.761 2  -6251300.937 5  22935995.206
  22935996.529           -.23411         -.90713  24781382.781
  24781382.853   -23095112.583 5 -17996189.974 8  20480888.415
  20480888.343   -13263667.749 2 -10335323.389 5  22269553.789
  22269554.551   -22652678.308 5 -17651435.265 7  20499308.160
  20499308.186    -4626747.795 2  -3605260.129 5  24047272.136    24047272.928
 03  7 27 21 51 30.0000000  0 12 08 09 10 15 17 18 21 23 26 28 29 31
                  -8011773.497 2  -6242938.903 5  22990335.234
  22990334.747    -3935261.036 1  -3066435.770 5  24214825.184
  24214825.712    -7399793.380 2  -5766072.444 5  23608859.403
  23608859.342    -9133586.187 3  -7117078.076 6  22616643.384
  22616642.759      526294.110 1    410097.517 5  24334219.415
  24334217.930   -13102147.599 3 -10209463.010 6  22194902.184
  22194903.310    -7950026.357 2  -6194824.279 5  22949787.228
  22949788.660     -124305.007 1    -96861.880 3  24757728.977
  24757729.978   -23118738.856 5 -18014600.108 8  20476391.387
  20476392.459   -13312613.214 3 -10373462.735 6  22260239.504
  22260240.628   -22608067.063 5 -17616673.268 7  20507796.520
  20507797.476    -4640391.024 1  -3615891.223 5  24044675.542    24044675.590
 03  7 27 21 52  0.0000000  0 12 08 09 10 15 17 18 21 23 26 28 29 31
                  -7921943.822 2  -6172941.769 5  23007429.205
  23007428.915    -4039416.115 1  -3147595.468 5  24195007.293
  24195004.423    -7286367.430 2  -5677688.657 5  23630444.294
  23630443.256    -9148117.810 3  -7128401.425 6  22613878.087
  22613877.869      636679.118 1    496111.816 5  24355225.539
  24355223.255   -13177289.693 3 -10268015.336 6  22180603.146
  22180604.274    -7877115.649 2  -6138010.758 5  22963661.783
  22963663.243     -248487.180 1   -193627.439 4  24734097.687
  24734100.027   -23141881.607 5 -18032633.392 8  20471988.574
  20471988.480   -13360963.183 3 -10411138.045 6  22251038.943
  22251040.124   -22562928.172 5 -17581500.121 7  20516387.101
  20516387.133    -4653488.056 1  -3626096.733 5  24042182.386    24042182.390
 03  7 27 21 52 30.0000000  0 12 08 09 10 15 17 18 21 23 26 28 29 31
                  -7831787.394 2  -6102689.956 5  23024585.432
  23024585.049    -4143409.152 2  -3228628.897 5  24175215.644
  24175215.057    -7172719.606 1  -5589131.959 5  23652070.859
  23652070.751    -9162030.154 3  -7139242.278 6  22611230.806
  22611230.216      747242.078 1    582264.721 5  24376263.016
  24376263.700   -13251982.557 3 -10326217.678 6  22166389.592
  22166390.925    -7803747.387 2  -6080840.710 5  22977623.393
  22977624.955     -372516.304 1   -290273.806 4  24710496.365
  24710496.931   -23164512.826 5 -18050268.189 8  20467681.008
  20467681.911   -13408688.150 3 -10448326.317 6  22241957.243
  22241958.309   -22517235.668 5 -17545895.618 7  20525081.223
  20525082.144    -4666010.485 2  -3635854.426 5  24039799.384    24039801.672
 03  7 27 21 53  0.0000000  0 12 08 09 10 15 17 18 21 23 26 28 29 31
                  -7741331.766 2  -6032204.997 5  23041798.618
  23041798.470    -4247263.506 1  -3309554.298 5  24155453.769
  24155452.157    -7058876.988 1  -5500423.491 5  23673733.654
  23673733.160    -9175347.561 3  -7149619.503 6  22608696.566
  22608696.269      857955.070 1    668534.583 5  24397331.339
  24397329.852   -13326248.595 4 -10384087.350 6  22152257.283
  22152258.529    -7729949.052 2  -6023335.546 5  22991666.536
  22991668.222     -496415.030 1   -386818.626 3  24686917.767
  24686921.683   -23186656.529 5 -18067523.067 7  20463468.243
  20463468.086   -13455811.404 3 -10485045.770 6  22232990.072
  22232991.148   -22471015.753 5 -17509880.169 7  20533877.487
  20533877.646    -4677983.607 2  -3645184.401 5  24037523.168    24037522.156
 03  7 27 21 53 30.0000000  0 12 08 09 10 15 17 18 21 23 26 28 29 31
                  -7650582.595 2  -5961491.316 5  23059067.323
  23059066.999    -4350980.537 2  -3390372.768 5  24135715.874
  24135715.749    -6944845.467 1  -5411567.860 5  23695433.521
  23695432.761    -9188072.919 3  -7159535.366 6  22606275.048
  22606274.281      968812.299 1    754916.857 5  24418427.752
  24418426.541   -13400088.904 4 -10441625.203 6  22138206.044
  22138207.251    -7655726.411 2  -5965499.740 5  23005790.818
  23005792.184     -620183.100 1   -483261.250 4  24663366.725
  24663366.903   -23208315.202 5 -18084399.958 8  20459345.629
  20459346.710   -13502334.142 2 -10521297.289 6  22224136.982
  22224137.560   -22424272.862 5 -17473457.193 7  20542771.620
  20542772.512    -4689409.782 1  -3654088.263 5  24035349.258    24035348.844
 03  7 27 21 54  0.0000000  0 12 08 09 10 15 17 18 21 23 26 28 29 31
                  -7559535.281 2  -5890545.381 5  23076393.208
  23076393.138    -4454551.471 1  -3471077.365 5  24116006.824
  24116007.119    -6830620.355 1  -5322561.334 5  23717170.239
  23717169.340    -9200198.662 3  -7168983.951 6  22603967.676
  22603967.118     1079817.825 1    841414.676 5  24439550.770
  24439550.027   -13473494.044 4 -10498823.908 6  22124237.504
  22124238.674    -7581074.726 2  -5907329.641 5  23019996.793
  23019997.916     -743810.904 1   -579595.320 4  24639842.229
  24639841.566   -23229481.201 5 -18100892.895 8  20455318.883
  20455318.886   -13548247.680 3 -10557074.080 6  22215400.084
  22215400.812   -22377001.328 5 -17436622.302 7  20551768.013
  20551768.054    -4700280.600 1  -3662558.944 5  24033278.705    24033279.253
 03  7 27 21 54 30.0000000  0 12 08 09 10 15 17 18 21 23 26 28 29 31
                  -7468197.273 2  -5819372.981 5  23093774.590
  23093774.047    -4557979.399 2  -3551670.520 5  24096326.125
  24096326.437    -6716209.013 1  -5233409.677 5  23738941.617
  23738940.951    -9211729.413 3  -7177968.927 6  22601773.191
  22601772.991     1190963.700 1    928021.885 5  24460701.227
  24460700.333   -13546467.250 4 -10555686.094 6  22110351.005
  22110352.348    -7506001.958 2  -5848831.426 5  23034282.468
  23034283.966     -867301.437 1   -675821.591 4  24616341.307
  24616342.728   -23250158.931 5 -18117005.356 8  20451382.897
  20451383.880   -13593555.417 3 -10592378.815 6  22206778.416
  22206779.240   -22329207.679 5 -17399380.545 7  20560862.033
  20560862.875    -4710601.283 1  -3670600.842 5  24031314.737    24031314.843
 03  7 27 21 55  0.0000000  0 12 08 09 10 15 17 18 21 23 26 28 29 31
                  -7376557.618 2  -5747965.534 5  23111213.049
  23111212.307    -4661249.319 2  -3632140.542 5  24076673.940
  24076673.801    -6601600.507 1  -5144104.373 5  23760750.971
  23760750.394    -9222651.479 3  -7186479.561 6  22599695.007
  22599694.528     1302260.292 1   1014746.428 5  24481880.506
  24481879.780   -13618993.222 4 -10612199.789 6  22096549.577
  22096551.081    -7430497.135 2  -5789996.504 5  23048650.504
  23048652.045     -990638.747 1   -771928.396 4  24592871.817
  24592871.941   -23270334.633 5 -18132726.651 8  20447544.720
  20447544.633   -13638242.255 3 -10627199.671 6  22198274.624
  22198275.643   -22280879.865 5 -17361722.514 7  20570059.290
  20570059.228    -4720358.759 1  -3678203.998 5  24029457.669    24029457.958
 03  7 27 21 55 30.0000000  0 12 08 09 10 15 17 18 21 23 26 28 29 31
                  -7284625.072 2  -5676329.844 5  23128707.321
  23128706.964    -4764366.311 2  -3712491.404 5  24057051.677
  24057051.193    -6486803.604 1  -5054652.209 5  23782595.661
  23782596.197    -9232971.499 3  -7194521.100 6  22597731.056
  22597730.414     1413698.359 1   1101581.254 5  24503086.746
  24503085.508   -13691076.335 4 -10668368.370 6  22082832.460
  22082833.851    -7354569.069 2  -5730831.762 5  23063099.166
  23063100.843    -1113827.132 1   -867919.178 4  24569430.353
  24569430.006   -23290014.141 5 -18148061.373 7  20443798.708
  20443799.759   -13682313.088 3 -10661540.516 6  22189888.286
  22189888.781   -22232026.072 5 -17323654.648 7  20579355.046
  20579355.918    -4729559.136 1  -3685373.166 5  24027707.470    24027708.245
 03  7 27 21 56  0.0000000  0 12 08 09 10 15 17 18 21 23 26 28 29 31
                  -7192412.239 2  -5604475.727 5  23146255.227
  23146254.687    -4867338.732 2  -3792729.604 5  24037456.502
  24037456.176    -6371831.121 1  -4965063.258 5  23804475.938
  23804474.906    -9242699.081 3  -7202101.009 6  22595879.757
  22595879.269     1525265.322 1   1188516.519 5  24524316.961
  24524314.519   -13762724.653 4 -10724198.147 6  22069198.344
  22069199.787    -7278230.536 2  -5671347.164 5  23077625.722
  23077627.366    -1236874.094 1   -963799.914 4  24546017.249
  24546013.776   -23309206.946 5 -18163016.870 8  20440147.629
  20440147.594   -13725776.340 3 -10695407.918 6  22181617.149
  22181618.081   -22182657.712 5 -17285185.859 7  20588750.533
  20588750.389    -4738211.826 1  -3692115.409 5  24026061.535    24026061.306
 03  7 27 21 56 30.0000000  0 12 08 09 10 15 17 18 21 23 26 28 29 31
                  -7099907.699 2  -5532394.267 5  23163857.914
  23163857.916    -4970151.124 2  -3872843.125 5  24017891.682
  24017891.581    -6256671.691 1  -4875328.714 5  23826388.387
  23826387.477    -9251820.341 3  -7209208.436 6  22594144.036
  22594143.746     1636971.832 1   1275560.540 5  24545575.657
  24545571.827   -13833922.623 4 -10779677.062 6  22055649.624
  22055651.029    -7201470.630 2  -5611534.229 5  23092232.729
  23092234.276    -1359763.226 1  -1059555.512 5  24522629.002
  24522627.354   -23327898.667 5 -18177581.870 7  20436589.659
  20436590.609   -13768617.125 3 -10728790.265 6  22173464.659
  22173465.855   -22132762.691 5 -17246306.662 7  20598244.410
  20598245.139    -4746303.125 2  -3698420.214 5  24024521.429    24024522.060
 03  7 27 21 57  0.0000000  0 12 08 09 10 15 17 18 21 23 26 28 29 31
                  -7007108.500 2  -5460083.177 5  23181516.944
  23181516.840    -5072796.550 2  -3952826.519 5  23998358.655
  23998358.665    -6141322.189 1  -4785445.983 5  23848339.059
  23848338.631    -9260329.780 3  -7215839.152 6  22592524.689
  22592524.584     1748820.170 1   1362715.059 5  24566858.227
  24566858.725   -13904662.577 4 -10834799.105 6  22042188.440
  22042189.702    -7124286.870 2  -5551391.011 5  23106920.324
  23106921.838    -1482486.948 1  -1155184.538 5  24499276.722
  24499275.437   -23346083.325 5 -18191751.765 8  20433130.379
  20433130.325   -13810828.107 3 -10761681.854 6  22165432.134
  22165433.078   -22082336.757 5 -17207013.704 7  20607840.949
  20607840.883    -4753827.402 2  -3704283.201 5  24023089.165    24023089.295
 03  7 27 21 57 30.0000000  0 12 08 09 10 15 17 18 21 23 26 28 29 31
                  -6914036.482 2  -5387559.486 5  23199228.146
  23199227.241    -5175292.892 2  -4032693.777 5  23978854.381
  23978854.240    -6025804.781 1  -4695432.438 5  23870321.335
  23870320.488    -9268246.572 3  -7222008.074 6  22591018.282
  22591017.778     1860788.371 1   1449962.982 5  24588164.999
  24588163.944   -13974961.642 4 -10889577.634 6  22028810.996
  22028812.076    -7046701.021 2  -5490934.531 5  23121684.687
  23121686.036    -1605061.772 1  -1250697.646 5  24475953.008
  24475952.245   -23363779.823 5 -18205541.230 8  20429761.771
  20429762.810   -13852427.349 3 -10794096.766 6  22157516.069
  22157517.127   -22031401.102 5 -17167323.571 7  20617532.806
  20617533.616    -4760804.008 1  -3709719.502 5  24021760.592    24021759.781
 03  7 27 21 58  0.0000000  0 12 08 09 10 15 17 18 21 23 26 28 29 31
                  -6820684.073 2  -5314817.297 5  23216992.175
  23216991.826    -5277628.280 2  -4112435.627 5  23959380.711
  23959381.037    -5910111.643 1  -4605281.951 5  23892337.065
  23892337.705    -9275560.642 3  -7227707.426 6  22589626.457
  22589626.215     1972883.375 1   1537309.725 5  24609495.067
  24609493.581   -14044808.006 4 -10944003.443 6  22015519.782
  22015520.891    -6968705.486 2  -5430158.830 5  23136526.756
  23136528.153    -1727474.977 1  -1346084.789 5  24452655.924
  24452656.005   -23380977.541 5 -18218942.028 8  20426490.168
  20426490.162   -13893403.257 3 -10826025.995 6  22149718.664
  22149719.825   -21979947.203 5 -17127229.636 7  20627325.015
  20627324.950    -4767222.700 1  -3714721.174 5  24020539.373    24020539.453
 03  7 27 21 58 30.0000000  0 12 08 09 10 15 17 18 21 23 26 28 29 31
                  -6727067.585 2  -5241869.401 5  23234806.703
  23234806.457    -5379814.716 2  -4192061.393 5  23939935.292
  23939935.497    -5794258.907 1  -4515007.112 5  23914384.092
  23914382.826    -9282285.260 3  -7232947.472 6  22588346.869
  22588346.495     2085088.732 1   1624742.445 5  24630848.068
  24630843.848   -14114213.216 4 -10998085.467 6  22002312.473
  22002313.640    -6890316.860 2  -5369076.763 5  23151443.617
  23151444.903    -1849737.734 1  -1441354.668 5  24429392.031
  24429392.689   -23397689.960 5 -18231964.700 7  20423308.729
  20423309.777   -13933767.936 3 -10857478.954 6  22142037.265
  22142038.559   -21927990.175 5 -17086743.582 7  20637211.264
  20637212.074    -4773096.902 1  -3719298.482 5  24019422.449    24019423.735
 03  7 27 21 59  0.0000000  0 12 08 09 10 15 17 18 21 23 26 28 29 31
                  -6633165.814 2  -5168699.219 5  23252675.589
  23252675.049    -5481826.808 2  -4271551.309 5  23920523.204
  23920522.435    -5678225.376 1  -4424591.400 5  23936463.772
  23936463.204    -9288396.774 3  -7237709.740 6  22587184.027
  22587183.749     2197425.132 1   1712277.183 5  24652225.951
  24652224.023   -14183151.510 4 -11051803.627 6  21989193.964
  21989195.131    -6811514.134 2  -5307672.123 5  23166439.475
  23166440.655    -1971823.509 1  -1536486.561 5  24406158.551
  24406159.931   -23413892.577 5 -18244590.089 8  20420226.728
  20420226.605   -13973496.429 3 -10888436.194 6  22134477.318
  22134477.992   -21875507.977 5 -17045848.270 7  20647199.014
  20647199.013    -4778402.884 1  -3723433.050 5  24018412.961    24018414.777
